Time,TemperatureF,DewpointF,PressureIn,WindDirection,WindDirectionDegrees,WindSpeedMPH,WindSpeedGustMPH,Humidity,HourlyPrecipIn,Conditions,Clouds,dailyrainin,SoftwareType,DateUTC
2013-10-10 00:01:00,44.6,20.0,29.71,West,270,2.5,2.5,37,0.00,,SKC,0.00,VWS V14.00,2013-10-10 07:01:00,
2013-10-10 00:02:00,44.6,20.0,29.71,SW,225,3.4,3.4,37,0.00,,SKC,0.00,VWS V14.00,2013-10-10 07:02:00,
2013-10-10 00:03:00,44.5,19.8,29.71,SW,225,2.9,2.9,37,0.00,,SKC,0.00,VWS V14.00,2013-10-10 07:03:00,
2013-10-10 00:05:00,44.1,19.5,29.71,SW,225,0.0,0.0,37,0.00,,SKC,0.00,VWS V14.00,2013-10-10 07:05:00,
2013-10-10 00:06:00,44.1,19.5,29.71,SW,225,2.5,2.5,37,0.00,,SKC,0.00,VWS V14.00,2013-10-10 07:06:00,
2013-10-10 00:07:00,43.9,19.4,29.71,SW,225,1.3,1.3,37,0.00,,SKC,0.00,VWS V14.00,2013-10-10 07:07:00,
2013-10-10 00:08:00,43.7,19.8,29.71,SW,225,0.9,0.9,38,0.00,,SKC,0.00,VWS V14.00,2013-10-10 07:08:00,
2013-10-10 00:10:00,43.7,20.4,29.71,SW,225,3.4,3.4,39,0.00,,SKC,0.00,VWS V14.00,2013-10-10 07:10:00,
2013-10-10 00:11:00,43.6,20.3,29.71,SW,225,2.7,2.7,39,0.00,,SKC,0.00,VWS V14.00,2013-10-10 07:11:00,
2013-10-10 00:12:00,43.6,20.3,29.71,SW,225,2.2,2.2,39,0.00,,SKC,0.00,VWS V14.00,2013-10-10 07:12:00,
2013-10-10 00:13:00,43.6,20.3,29.68,SSW,202,1.6,1.6,39,0.00,,SKC,0.00,VWS V14.00,2013-10-10 07:13:00,
2013-10-10 00:15:00,43.4,20.1,29.68,SSW,202,2.5,2.5,39,0.00,,SKC,0.00,VWS V14.00,2013-10-10 07:15:00,
2013-10-10 00:16:00,43.2,19.9,29.68,SSW,202,2.2,2.2,39,0.00,,SKC,0.00,VWS V14.00,2013-10-10 07:16:00,
2013-10-10 00:17:00,43.2,19.9,29.68,SSW,202,2.2,2.2,39,0.00,,SKC,0.00,VWS V14.00,2013-10-10 07:17:00,
2013-10-10 00:18:00,43.2,19.9,29.68,SSW,202,3.1,3.1,39,0.00,,SKC,0.00,VWS V14.00,2013-10-10 07:18:00,
2013-10-10 00:20:00,43.0,20.4,29.68,SSW,202,2.7,2.7,40,0.00,,SKC,0.00,VWS V14.00,2013-10-10 07:20:00,
2013-10-10 00:22:00,43.0,19.8,29.68,SSW,202,2.0,2.0,39,0.00,,SKC,0.00,VWS V14.00,2013-10-10 07:22:00,
2013-10-10 00:24:00,42.8,19.6,29.68,SSW,202,0.9,0.9,39,0.00,,SKC,0.00,VWS V14.00,2013-10-10 07:24:00,
2013-10-10 00:25:00,42.7,19.5,29.68,SSW,202,0.0,0.0,39,0.00,,SKC,0.00,VWS V14.00,2013-10-10 07:25:00,
2013-10-10 00:27:00,42.5,19.3,29.68,SSW,202,1.6,1.6,39,0.00,,SKC,0.00,VWS V14.00,2013-10-10 07:27:00,
2013-10-10 00:28:00,42.3,18.5,29.68,SSW,202,1.3,1.3,38,0.00,,SKC,0.00,VWS V14.00,2013-10-10 07:28:00,
2013-10-10 00:29:00,42.3,18.5,29.68,SSW,202,0.0,0.0,38,0.00,,SKC,0.00,VWS V14.00,2013-10-10 07:29:00,
2013-10-10 00:30:00,42.3,18.5,29.68,SSW,202,0.0,0.0,38,0.00,,SKC,0.00,VWS V14.00,2013-10-10 07:30:00,
2013-10-10 00:32:00,42.3,17.9,29.68,SSW,202,1.1,1.1,37,0.00,,SKC,0.00,VWS V14.00,2013-10-10 07:32:00,
2013-10-10 00:33:00,42.3,17.9,29.68,SW,225,1.1,1.1,37,0.00,,SKC,0.00,VWS V14.00,2013-10-10 07:33:00,
2013-10-10 00:34:00,42.3,17.9,29.68,SW,225,0.0,0.0,37,0.00,,SKC,0.00,VWS V14.00,2013-10-10 07:34:00,
2013-10-10 00:35:00,42.1,17.7,29.68,SW,225,1.3,1.3,37,0.00,,SKC,0.00,VWS V14.00,2013-10-10 07:35:00,
2013-10-10 00:37:00,42.1,17.7,29.68,SW,225,2.0,2.0,37,0.00,,SKC,0.00,VWS V14.00,2013-10-10 07:37:00,
2013-10-10 00:38:00,42.1,17.7,29.68,SW,225,2.5,2.5,37,0.00,,SKC,0.00,VWS V14.00,2013-10-10 07:38:00,
2013-10-10 00:39:00,41.9,17.6,29.68,SSW,202,2.7,2.7,37,0.00,,SKC,0.00,VWS V14.00,2013-10-10 07:39:00,
2013-10-10 00:40:00,41.9,18.2,29.68,SSW,202,2.9,2.9,38,0.00,,SKC,0.00,VWS V14.00,2013-10-10 07:40:00,
2013-10-10 00:42:00,41.9,18.8,29.68,SW,225,2.0,2.0,39,0.00,,SKC,0.00,VWS V14.00,2013-10-10 07:42:00,
2013-10-10 00:43:00,41.8,18.6,29.68,SW,225,1.3,1.3,39,0.00,,SKC,0.00,VWS V14.00,2013-10-10 07:43:00,
2013-10-10 00:44:00,41.8,18.6,29.71,SW,225,0.0,0.0,39,0.00,,SKC,0.00,VWS V14.00,2013-10-10 07:44:00,
2013-10-10 00:45:00,41.6,17.9,29.71,SW,225,0.0,0.0,38,0.00,,SKC,0.00,VWS V14.00,2013-10-10 07:45:00,
2013-10-10 00:47:00,41.4,18.3,29.71,NE,45,0.0,0.0,39,0.00,,SKC,0.00,VWS V14.00,2013-10-10 07:47:00,
2013-10-10 00:48:00,41.4,18.3,29.71,NE,45,0.0,0.0,39,0.00,,SKC,0.00,VWS V14.00,2013-10-10 07:48:00,
2013-10-10 00:49:00,41.0,18.0,29.71,NE,45,0.0,0.0,39,0.00,,SKC,0.00,VWS V14.00,2013-10-10 07:49:00,
2013-10-10 00:50:00,40.9,17.8,29.71,East,90,0.0,0.0,39,0.00,,SKC,0.00,VWS V14.00,2013-10-10 07:50:00,
2013-10-10 00:53:00,40.7,17.7,29.71,East,90,0.0,0.0,39,0.00,,SKC,0.00,VWS V14.00,2013-10-10 07:53:00,
2013-10-10 00:54:00,40.5,17.5,29.71,East,90,0.0,0.0,39,0.00,,SKC,0.00,VWS V14.00,2013-10-10 07:54:00,
2013-10-10 00:55:00,40.7,17.7,29.71,East,90,0.0,0.0,39,0.00,,SKC,0.00,VWS V14.00,2013-10-10 07:55:00,
2013-10-10 00:58:00,40.5,17.5,29.71,SE,135,0.0,0.0,39,0.00,,SKC,0.00,VWS V14.00,2013-10-10 07:58:00,
2013-10-10 00:59:00,40.3,17.4,29.71,North,0,3.4,3.4,39,0.00,,SKC,0.00,VWS V14.00,2013-10-10 07:59:00,
2013-10-10 01:00:00,40.3,17.4,29.71,NE,45,2.7,2.7,39,0.00,,SKC,0.00,VWS V14.00,2013-10-10 08:00:00,
2013-10-10 01:03:00,40.1,17.2,29.71,NE,45,0.0,0.0,39,0.00,,SKC,0.00,VWS V14.00,2013-10-10 08:03:00,
2013-10-10 01:04:00,40.0,17.0,29.71,NNE,22,0.0,0.0,39,0.00,,SKC,0.00,VWS V14.00,2013-10-10 08:04:00,
2013-10-10 01:06:00,39.8,16.9,29.71,NNW,338,0.0,0.0,39,0.00,,SKC,0.00,VWS V14.00,2013-10-10 08:06:00,
2013-10-10 01:08:00,39.6,16.7,29.71,WNW,292,5.4,5.4,39,0.00,,SKC,0.00,VWS V14.00,2013-10-10 08:08:00,
2013-10-10 01:09:00,40.5,16.3,29.71,NNW,338,0.0,0.0,37,0.00,,SKC,0.00,VWS V14.00,2013-10-10 08:09:00,
2013-10-10 01:11:00,40.9,17.8,29.71,NE,45,2.7,2.7,39,0.00,,SKC,0.00,VWS V14.00,2013-10-10 08:11:00,
2013-10-10 01:13:00,40.5,17.5,29.71,East,90,2.0,2.0,39,0.00,,SKC,0.00,VWS V14.00,2013-10-10 08:13:00,
2013-10-10 01:14:00,40.3,17.4,29.71,East,90,2.0,2.0,39,0.00,,SKC,0.00,VWS V14.00,2013-10-10 08:14:00,
2013-10-10 01:15:00,40.3,17.4,29.71,East,90,1.3,1.3,39,0.00,,SKC,0.00,VWS V14.00,2013-10-10 08:15:00,
2013-10-10 01:16:00,40.3,17.4,29.71,NNE,22,2.7,2.7,39,0.00,,SKC,0.00,VWS V14.00,2013-10-10 08:16:00,
2013-10-10 01:18:00,40.1,16.6,29.71,NE,45,1.6,1.6,38,0.00,,SKC,0.00,VWS V14.00,2013-10-10 08:18:00,
2013-10-10 01:19:00,40.3,16.8,29.71,NE,45,0.0,0.0,38,0.00,,SKC,0.00,VWS V14.00,2013-10-10 08:19:00,
2013-10-10 01:20:00,40.5,16.9,29.71,ENE,68,2.7,2.7,38,0.00,,SKC,0.00,VWS V14.00,2013-10-10 08:20:00,
2013-10-10 01:21:00,40.5,16.9,29.71,East,90,0.0,0.0,38,0.00,,SKC,0.00,VWS V14.00,2013-10-10 08:21:00,
2013-10-10 01:23:00,40.3,16.8,29.71,East,90,0.0,0.0,38,0.00,,SKC,0.00,VWS V14.00,2013-10-10 08:23:00,
2013-10-10 01:24:00,40.3,16.8,29.71,East,90,0.0,0.0,38,0.00,,SKC,0.00,VWS V14.00,2013-10-10 08:24:00,
2013-10-10 01:25:00,40.1,16.0,29.71,East,90,0.0,0.0,37,0.00,,SKC,0.00,VWS V14.00,2013-10-10 08:25:00,
2013-10-10 01:26:00,40.1,16.0,29.71,NE,45,1.1,1.1,37,0.00,,SKC,0.00,VWS V14.00,2013-10-10 08:26:00,
2013-10-10 01:29:00,39.8,15.6,29.71,ENE,68,0.0,0.0,37,0.00,,SKC,0.00,VWS V14.00,2013-10-10 08:29:00,
2013-10-10 01:30:00,39.6,15.5,29.71,ENE,68,0.0,0.0,37,0.00,,SKC,0.00,VWS V14.00,2013-10-10 08:30:00,
2013-10-10 01:31:00,39.4,15.9,29.71,NNW,338,0.0,0.0,38,0.00,,SKC,0.00,VWS V14.00,2013-10-10 08:31:00,
2013-10-10 01:34:00,39.2,15.8,29.71,NNW,338,0.0,0.0,38,0.00,,SKC,0.00,VWS V14.00,2013-10-10 08:34:00,
2013-10-10 01:35:00,39.1,15.6,29.71,NNW,338,0.0,0.0,38,0.00,,SKC,0.00,VWS V14.00,2013-10-10 08:35:00,
2013-10-10 01:37:00,39.1,15.6,29.71,ENE,68,0.0,0.0,38,0.00,,SKC,0.00,VWS V14.00,2013-10-10 08:37:00,
2013-10-10 01:39:00,38.9,15.4,29.71,ENE,68,2.0,2.0,38,0.00,,SKC,0.00,VWS V14.00,2013-10-10 08:39:00,
2013-10-10 01:40:00,38.9,15.4,29.71,NE,45,2.5,2.5,38,0.00,,SKC,0.00,VWS V14.00,2013-10-10 08:40:00,
2013-10-10 01:41:00,38.9,15.4,29.71,NE,45,2.5,2.5,38,0.00,,SKC,0.00,VWS V14.00,2013-10-10 08:41:00,
2013-10-10 01:42:00,38.9,15.4,29.71,NE,45,3.4,3.4,38,0.00,,SKC,0.00,VWS V14.00,2013-10-10 08:42:00,
2013-10-10 01:44:00,39.1,15.6,29.71,NNE,22,2.9,2.9,38,0.00,,SKC,0.00,VWS V14.00,2013-10-10 08:44:00,
2013-10-10 01:45:00,39.1,15.6,29.71,NE,45,2.7,2.7,38,0.00,,SKC,0.00,VWS V14.00,2013-10-10 08:45:00,
2013-10-10 01:46:00,39.1,15.6,29.71,NE,45,2.7,2.7,38,0.00,,SKC,0.00,VWS V14.00,2013-10-10 08:46:00,
2013-10-10 01:47:00,39.2,15.8,29.71,NE,45,3.1,3.1,38,0.00,,SKC,0.00,VWS V14.00,2013-10-10 08:47:00,
2013-10-10 01:49:00,39.4,15.9,29.71,NNE,22,3.6,3.6,38,0.00,,SKC,0.00,VWS V14.00,2013-10-10 08:49:00,
2013-10-10 01:50:00,39.6,16.1,29.71,NNE,22,3.6,3.6,38,0.00,,SKC,0.00,VWS V14.00,2013-10-10 08:50:00,
2013-10-10 01:51:00,39.6,16.1,29.71,NNE,22,3.1,3.1,38,0.00,,SKC,0.00,VWS V14.00,2013-10-10 08:51:00,
2013-10-10 01:52:00,39.6,16.1,29.71,North,0,3.6,3.6,38,0.00,,SKC,0.00,VWS V14.00,2013-10-10 08:52:00,
2013-10-10 02:09:00,38.7,15.3,29.71,WSW,248,2.5,2.5,38,0.00,,SKC,0.00,VWS V14.00,2013-10-10 09:09:00,
2013-10-10 02:14:00,38.0,14.0,29.71,WSW,248,0.0,0.0,37,0.00,,SKC,0.00,VWS V14.00,2013-10-10 09:14:00,
2013-10-10 02:15:00,37.8,13.9,29.71,WSW,248,0.0,0.0,37,0.00,,SKC,0.00,VWS V14.00,2013-10-10 09:15:00,
2013-10-10 02:19:00,37.4,14.2,29.71,SSW,202,0.0,0.0,38,0.00,,SKC,0.00,VWS V14.00,2013-10-10 09:19:00,
2013-10-10 02:20:00,37.4,14.2,29.71,SSW,202,0.0,0.0,38,0.00,,SKC,0.00,VWS V14.00,2013-10-10 09:20:00,
2013-10-10 02:24:00,37.4,14.8,29.71,SSW,202,2.5,2.5,39,0.00,,SKC,0.00,VWS V14.00,2013-10-10 09:24:00,
2013-10-10 02:25:00,37.4,14.8,29.71,SSW,202,2.5,2.5,39,0.00,,SKC,0.00,VWS V14.00,2013-10-10 09:25:00,
2013-10-10 02:29:00,37.1,13.8,29.71,NE,45,0.0,0.0,38,0.00,,SKC,0.00,VWS V14.00,2013-10-10 09:29:00,
2013-10-10 02:30:00,37.1,13.8,29.71,NE,45,0.0,0.0,38,0.00,,SKC,0.00,VWS V14.00,2013-10-10 09:30:00,
2013-10-10 02:35:00,36.2,13.6,29.71,NNE,22,2.5,2.5,39,0.00,,SKC,0.00,VWS V14.00,2013-10-10 09:35:00,
2013-10-10 02:40:00,36.4,13.8,29.71,NNE,22,0.0,0.0,39,0.00,,SKC,0.00,VWS V14.00,2013-10-10 09:40:00,
2013-10-10 02:41:00,36.4,14.4,29.71,NNE,22,0.0,0.0,40,0.00,,SKC,0.00,VWS V14.00,2013-10-10 09:41:00,
2013-10-10 02:45:00,36.2,14.2,29.71,North,0,0.0,0.0,40,0.00,,SKC,0.00,VWS V14.00,2013-10-10 09:45:00,
2013-10-10 02:46:00,36.2,14.2,29.71,West,270,0.0,0.0,40,0.00,,SKC,0.00,VWS V14.00,2013-10-10 09:46:00,
2013-10-10 02:50:00,35.6,13.1,29.71,West,270,1.1,1.1,39,0.00,,SKC,0.00,VWS V14.00,2013-10-10 09:50:00,
2013-10-10 02:51:00,35.6,13.1,29.71,West,270,0.0,0.0,39,0.00,,SKC,0.00,VWS V14.00,2013-10-10 09:51:00,
2013-10-10 02:52:00,35.5,13.0,29.71,West,270,0.0,0.0,39,0.00,,SKC,0.00,VWS V14.00,2013-10-10 09:52:00,
2013-10-10 02:55:00,35.5,14.1,29.71,South,180,2.2,2.2,41,0.00,,SKC,0.00,VWS V14.00,2013-10-10 09:55:00,
2013-10-10 02:56:00,35.5,14.1,29.71,South,180,1.6,1.6,41,0.00,,SKC,0.00,VWS V14.00,2013-10-10 09:56:00,
2013-10-10 02:57:00,35.5,14.1,29.71,South,180,2.2,2.2,41,0.00,,SKC,0.00,VWS V14.00,2013-10-10 09:57:00,
2013-10-10 03:00:00,35.3,14.5,29.74,SSW,202,2.7,2.7,42,0.00,,SKC,0.00,VWS V14.00,2013-10-10 10:00:00,
2013-10-10 03:01:00,35.3,14.5,29.74,SSW,202,2.5,2.5,42,0.00,,SKC,0.00,VWS V14.00,2013-10-10 10:01:00,
2013-10-10 03:02:00,35.3,14.5,29.74,SW,225,2.7,2.7,42,0.00,,SKC,0.00,VWS V14.00,2013-10-10 10:02:00,
2013-10-10 03:05:00,35.8,16.6,29.74,WSW,248,2.7,2.7,45,0.00,,SKC,0.00,VWS V14.00,2013-10-10 10:05:00,
2013-10-10 03:06:00,35.8,16.0,29.74,WSW,248,1.6,1.6,44,0.00,,SKC,0.00,VWS V14.00,2013-10-10 10:06:00,
2013-10-10 03:07:00,35.8,16.0,29.74,West,270,1.1,1.1,44,0.00,,SKC,0.00,VWS V14.00,2013-10-10 10:07:00,
2013-10-10 03:10:00,35.5,14.7,29.74,North,0,1.1,1.1,42,0.00,,SKC,0.00,VWS V14.00,2013-10-10 10:10:00,
2013-10-10 03:11:00,35.5,14.7,29.74,North,0,1.1,1.1,42,0.00,,SKC,0.00,VWS V14.00,2013-10-10 10:11:00,
2013-10-10 03:12:00,35.1,14.3,29.74,North,0,0.0,0.0,42,0.00,,SKC,0.00,VWS V14.00,2013-10-10 10:12:00,
2013-10-10 03:13:00,34.9,14.2,29.74,North,0,0.0,0.0,42,0.00,,SKC,0.00,VWS V14.00,2013-10-10 10:13:00,
2013-10-10 03:16:00,34.9,14.2,29.74,North,0,0.0,0.0,42,0.00,,SKC,0.00,VWS V14.00,2013-10-10 10:16:00,
2013-10-10 03:17:00,34.7,14.0,29.74,North,0,1.1,1.1,42,0.00,,SKC,0.00,VWS V14.00,2013-10-10 10:17:00,
2013-10-10 03:18:00,34.7,15.1,29.74,North,0,0.9,0.9,44,0.00,,SKC,0.00,VWS V14.00,2013-10-10 10:18:00,
2013-10-10 03:25:00,35.6,14.8,29.74,NW,315,3.8,3.8,42,0.00,,SKC,0.00,VWS V14.00,2013-10-10 10:25:00,
2013-10-10 03:30:00,37.3,15.7,29.74,WNW,292,7.4,7.4,41,0.00,,SKC,0.00,VWS V14.00,2013-10-10 10:30:00,
2013-10-10 03:31:00,37.6,16.1,29.74,NW,315,4.9,4.9,41,0.00,,SKC,0.00,VWS V14.00,2013-10-10 10:31:00,
2013-10-10 03:35:00,38.3,15.6,29.74,NW,315,11.2,11.2,39,0.00,,SKC,0.00,VWS V14.00,2013-10-10 10:35:00,
2013-10-10 03:36:00,38.7,15.9,29.74,WNW,292,7.4,7.4,39,0.00,,SKC,0.00,VWS V14.00,2013-10-10 10:36:00,
2013-10-10 03:40:00,40.1,16.6,29.74,WNW,292,9.8,9.8,38,0.00,,SKC,0.00,VWS V14.00,2013-10-10 10:40:00,
2013-10-10 03:41:00,40.1,16.6,29.74,WNW,292,12.1,12.1,38,0.00,,SKC,0.00,VWS V14.00,2013-10-10 10:41:00,
2013-10-10 03:45:00,40.1,16.0,29.74,NW,315,10.7,10.7,37,0.00,,SKC,0.00,VWS V14.00,2013-10-10 10:45:00,
2013-10-10 03:46:00,40.1,16.0,29.74,WNW,292,8.5,8.5,37,0.00,,SKC,0.00,VWS V14.00,2013-10-10 10:46:00,
2013-10-10 03:47:00,40.1,16.0,29.74,NNW,338,10.3,10.3,37,0.00,,SKC,0.00,VWS V14.00,2013-10-10 10:47:00,
2013-10-10 03:50:00,40.3,16.1,29.74,WNW,292,8.7,8.7,37,0.00,,SKC,0.00,VWS V14.00,2013-10-10 10:50:00,
2013-10-10 03:51:00,40.3,16.1,29.74,WNW,292,8.5,8.5,37,0.00,,SKC,0.00,VWS V14.00,2013-10-10 10:51:00,
2013-10-10 03:52:00,40.3,16.1,29.74,NW,315,5.8,5.8,37,0.00,,SKC,0.00,VWS V14.00,2013-10-10 10:52:00,
2013-10-10 03:55:00,40.1,16.0,29.74,NW,315,5.8,5.8,37,0.00,,SKC,0.00,VWS V14.00,2013-10-10 10:55:00,
2013-10-10 03:56:00,40.1,16.0,29.74,NNW,338,10.1,10.1,37,0.00,,SKC,0.00,VWS V14.00,2013-10-10 10:56:00,
2013-10-10 03:57:00,40.1,16.0,29.74,NNW,338,8.7,8.7,37,0.00,,SKC,0.00,VWS V14.00,2013-10-10 10:57:00,
2013-10-10 04:00:00,40.0,15.8,29.74,NNW,338,7.8,7.8,37,0.00,,SKC,0.00,VWS V14.00,2013-10-10 11:00:00,
2013-10-10 04:01:00,40.0,15.8,29.74,NW,315,7.6,7.6,37,0.00,,SKC,0.00,VWS V14.00,2013-10-10 11:01:00,
2013-10-10 04:02:00,40.0,15.8,29.74,NW,315,6.0,6.0,37,0.00,,SKC,0.00,VWS V14.00,2013-10-10 11:02:00,
2013-10-10 04:03:00,40.0,15.8,29.74,NW,315,7.2,7.2,37,0.00,,SKC,0.00,VWS V14.00,2013-10-10 11:03:00,
2013-10-10 04:05:00,40.0,15.8,29.74,WNW,292,12.8,12.8,37,0.00,,SKC,0.00,VWS V14.00,2013-10-10 11:05:00,
2013-10-10 04:06:00,40.1,16.0,29.74,NNW,338,10.3,10.3,37,0.00,,SKC,0.00,VWS V14.00,2013-10-10 11:06:00,
2013-10-10 04:07:00,40.1,16.0,29.74,WNW,292,13.0,13.0,37,0.00,,SKC,0.00,VWS V14.00,2013-10-10 11:07:00,
2013-10-10 04:08:00,40.1,16.0,29.74,NNW,338,10.1,10.1,37,0.00,,SKC,0.00,VWS V14.00,2013-10-10 11:08:00,
2013-10-10 04:10:00,40.1,15.3,29.74,NW,315,7.6,7.6,36,0.00,,SKC,0.00,VWS V14.00,2013-10-10 11:10:00,
2013-10-10 04:11:00,40.0,15.2,29.74,NW,315,9.0,9.0,36,0.00,,SKC,0.00,VWS V14.00,2013-10-10 11:11:00,
2013-10-10 04:12:00,40.0,15.2,29.74,NW,315,10.5,10.5,36,0.00,,SKC,0.00,VWS V14.00,2013-10-10 11:12:00,
2013-10-10 04:14:00,39.6,14.9,29.76,NNW,338,6.7,6.7,36,0.00,,SKC,0.00,VWS V14.00,2013-10-10 11:14:00,
2013-10-10 04:15:00,39.6,15.5,29.76,NW,315,6.7,6.7,37,0.00,,SKC,0.00,VWS V14.00,2013-10-10 11:15:00,
2013-10-10 04:16:00,39.6,15.5,29.76,NNW,338,10.1,10.1,37,0.00,,SKC,0.00,VWS V14.00,2013-10-10 11:16:00,
2013-10-10 04:17:00,39.6,15.5,29.76,NW,315,8.1,8.1,37,0.00,,SKC,0.00,VWS V14.00,2013-10-10 11:17:00,
2013-10-10 04:19:00,39.8,15.6,29.76,NW,315,7.4,7.4,37,0.00,,SKC,0.00,VWS V14.00,2013-10-10 11:19:00,
2013-10-10 04:20:00,39.8,15.6,29.76,NW,315,5.6,5.6,37,0.00,,SKC,0.00,VWS V14.00,2013-10-10 11:20:00,
2013-10-10 04:21:00,39.8,15.6,29.76,NW,315,6.3,6.3,37,0.00,,SKC,0.00,VWS V14.00,2013-10-10 11:21:00,
2013-10-10 04:22:00,39.8,15.6,29.76,NW,315,3.8,3.8,37,0.00,,SKC,0.00,VWS V14.00,2013-10-10 11:22:00,
2013-10-10 04:24:00,39.6,15.5,29.76,NW,315,4.9,4.9,37,0.00,,SKC,0.00,VWS V14.00,2013-10-10 11:24:00,
2013-10-10 04:26:00,39.4,15.9,29.76,NNW,338,4.0,4.0,38,0.00,,SKC,0.00,VWS V14.00,2013-10-10 11:26:00,
2013-10-10 04:27:00,39.2,15.8,29.76,WNW,292,3.4,3.4,38,0.00,,SKC,0.00,VWS V14.00,2013-10-10 11:27:00,
2013-10-10 04:28:00,39.2,15.8,29.76,WNW,292,0.0,0.0,38,0.00,,SKC,0.00,VWS V14.00,2013-10-10 11:28:00,
2013-10-10 04:29:00,39.1,15.6,29.76,NNW,338,2.5,2.5,38,0.00,,SKC,0.00,VWS V14.00,2013-10-10 11:29:00,
2013-10-10 04:31:00,38.9,15.4,29.76,NW,315,3.1,3.1,38,0.00,,SKC,0.00,VWS V14.00,2013-10-10 11:31:00,
2013-10-10 04:32:00,38.9,15.4,29.76,WNW,292,2.7,2.7,38,0.00,,SKC,0.00,VWS V14.00,2013-10-10 11:32:00,
2013-10-10 04:33:00,38.9,15.4,29.76,WNW,292,3.8,3.8,38,0.00,,SKC,0.00,VWS V14.00,2013-10-10 11:33:00,
2013-10-10 04:34:00,39.1,15.6,29.76,WNW,292,6.5,6.5,38,0.00,,SKC,0.00,VWS V14.00,2013-10-10 11:34:00,
2013-10-10 04:36:00,39.1,15.6,29.76,WNW,292,3.8,3.8,38,0.00,,SKC,0.00,VWS V14.00,2013-10-10 11:36:00,
2013-10-10 04:37:00,39.1,15.6,29.76,NW,315,6.0,6.0,38,0.00,,SKC,0.00,VWS V14.00,2013-10-10 11:37:00,
2013-10-10 04:38:00,39.1,15.6,29.76,WNW,292,3.6,3.6,38,0.00,,SKC,0.00,VWS V14.00,2013-10-10 11:38:00,
2013-10-10 04:39:00,39.1,15.6,29.76,WNW,292,3.6,3.6,38,0.00,,SKC,0.00,VWS V14.00,2013-10-10 11:39:00,
2013-10-10 04:41:00,38.9,15.4,29.76,WNW,292,2.9,2.9,38,0.00,,SKC,0.00,VWS V14.00,2013-10-10 11:41:00,
2013-10-10 04:43:00,38.5,15.1,29.76,WNW,292,3.4,3.4,38,0.00,,SKC,0.00,VWS V14.00,2013-10-10 11:43:00,
2013-10-10 04:44:00,38.3,15.0,29.76,WNW,292,2.0,2.0,38,0.00,,SKC,0.00,VWS V14.00,2013-10-10 11:44:00,
2013-10-10 04:45:00,38.3,15.0,29.76,WNW,292,1.3,1.3,38,0.00,,SKC,0.00,VWS V14.00,2013-10-10 11:45:00,
2013-10-10 04:46:00,38.3,15.0,29.76,WNW,292,0.0,0.0,38,0.00,,SKC,0.00,VWS V14.00,2013-10-10 11:46:00,
2013-10-10 04:47:00,38.2,14.8,29.76,WNW,292,0.0,0.0,38,0.00,,SKC,0.00,VWS V14.00,2013-10-10 11:47:00,
2013-10-10 04:48:00,38.0,14.6,29.76,WSW,248,1.3,1.3,38,0.00,,SKC,0.00,VWS V14.00,2013-10-10 11:48:00,
2013-10-10 04:49:00,38.0,14.6,29.76,SW,225,2.0,2.0,38,0.00,,SKC,0.00,VWS V14.00,2013-10-10 11:49:00,
2013-10-10 04:50:00,37.6,14.3,29.76,South,180,1.6,1.6,38,0.00,,SKC,0.00,VWS V14.00,2013-10-10 11:50:00,
2013-10-10 04:51:00,37.4,14.2,29.76,South,180,1.3,1.3,38,0.00,,SKC,0.00,VWS V14.00,2013-10-10 11:51:00,
2013-10-10 04:53:00,37.1,13.8,29.76,South,180,1.1,1.1,38,0.00,,SKC,0.00,VWS V14.00,2013-10-10 11:53:00,
2013-10-10 04:54:00,37.1,13.8,29.76,South,180,0.0,0.0,38,0.00,,SKC,0.00,VWS V14.00,2013-10-10 11:54:00,
2013-10-10 04:55:00,36.7,13.5,29.76,South,180,0.0,0.0,38,0.00,,SKC,0.00,VWS V14.00,2013-10-10 11:55:00,
2013-10-10 04:56:00,36.5,13.9,29.76,East,90,1.3,1.3,39,0.00,,SKC,0.00,VWS V14.00,2013-10-10 11:56:00,
2013-10-10 04:58:00,36.4,13.2,29.76,East,90,0.0,0.0,38,0.00,,SKC,0.00,VWS V14.00,2013-10-10 11:58:00,
2013-10-10 04:59:00,36.2,13.6,29.76,East,90,0.0,0.0,39,0.00,,SKC,0.00,VWS V14.00,2013-10-10 11:59:00,
2013-10-10 05:00:00,36.0,13.5,29.76,East,90,0.0,0.0,39,0.00,,SKC,0.00,VWS V14.00,2013-10-10 12:00:00,
2013-10-10 05:01:00,35.8,13.3,29.76,East,90,1.3,1.3,39,0.00,,SKC,0.00,VWS V14.00,2013-10-10 12:01:00,
2013-10-10 05:03:00,35.8,13.3,29.76,East,90,0.0,0.0,39,0.00,,SKC,0.00,VWS V14.00,2013-10-10 12:03:00,
2013-10-10 05:04:00,35.6,13.1,29.76,East,90,0.0,0.0,39,0.00,,SKC,0.00,VWS V14.00,2013-10-10 12:04:00,
2013-10-10 05:06:00,35.3,12.8,29.76,SE,135,0.0,0.0,39,0.00,,SKC,0.00,VWS V14.00,2013-10-10 12:06:00,
2013-10-10 05:08:00,35.3,12.8,29.76,SE,135,0.0,0.0,39,0.00,,SKC,0.00,VWS V14.00,2013-10-10 12:08:00,
2013-10-10 05:09:00,35.1,12.6,29.76,SE,135,0.0,0.0,39,0.00,,SKC,0.00,VWS V14.00,2013-10-10 12:09:00,
2013-10-10 05:10:00,35.1,12.6,29.76,SE,135,0.0,0.0,39,0.00,,SKC,0.00,VWS V14.00,2013-10-10 12:10:00,
2013-10-10 05:11:00,34.9,13.1,29.76,SE,135,0.0,0.0,40,0.00,,SKC,0.00,VWS V14.00,2013-10-10 12:11:00,
2013-10-10 05:12:00,34.9,13.1,29.76,SE,135,0.0,0.0,40,0.00,,SKC,0.00,VWS V14.00,2013-10-10 12:12:00,
2013-10-10 05:13:00,34.7,12.3,29.76,SE,135,0.0,0.0,39,0.00,,SKC,0.00,VWS V14.00,2013-10-10 12:13:00,
2013-10-10 05:14:00,34.7,12.3,29.76,SE,135,0.0,0.0,39,0.00,,SKC,0.00,VWS V14.00,2013-10-10 12:14:00,
2013-10-10 05:15:00,34.6,12.2,29.76,SE,135,0.0,0.0,39,0.00,,SKC,0.00,VWS V14.00,2013-10-10 12:15:00,
2013-10-10 05:16:00,34.2,11.8,29.76,SE,135,1.3,1.3,39,0.00,,SKC,0.00,VWS V14.00,2013-10-10 12:16:00,
2013-10-10 05:18:00,34.2,12.4,29.76,NNE,22,1.6,1.6,40,0.00,,SKC,0.00,VWS V14.00,2013-10-10 12:18:00,
2013-10-10 05:19:00,34.0,12.2,29.76,NE,45,2.5,2.5,40,0.00,,SKC,0.00,VWS V14.00,2013-10-10 12:19:00,
2013-10-10 05:20:00,34.0,12.2,29.76,NE,45,2.5,2.5,40,0.00,,SKC,0.00,VWS V14.00,2013-10-10 12:20:00,
2013-10-10 05:22:00,34.0,12.8,29.76,East,90,1.6,1.6,41,0.00,,SKC,0.00,VWS V14.00,2013-10-10 12:22:00,
2013-10-10 05:23:00,34.0,12.8,29.76,East,90,0.0,0.0,41,0.00,,SKC,0.00,VWS V14.00,2013-10-10 12:23:00,
2013-10-10 05:24:00,33.8,12.6,29.76,SE,135,0.0,0.0,41,0.00,,SKC,0.00,VWS V14.00,2013-10-10 12:24:00,
2013-10-10 05:25:00,33.8,12.6,29.76,SE,135,0.0,0.0,41,0.00,,SKC,0.00,VWS V14.00,2013-10-10 12:25:00,
2013-10-10 05:27:00,34.2,13.0,29.76,SE,135,0.0,0.0,41,0.00,,SKC,0.00,VWS V14.00,2013-10-10 12:27:00,
2013-10-10 05:28:00,34.2,13.0,29.76,SE,135,0.0,0.0,41,0.00,,SKC,0.00,VWS V14.00,2013-10-10 12:28:00,
2013-10-10 05:29:00,34.4,13.1,29.76,SE,135,0.0,0.0,41,0.00,,SKC,0.00,VWS V14.00,2013-10-10 12:29:00,
2013-10-10 05:30:00,34.4,13.1,29.76,SE,135,1.6,1.6,41,0.00,,SKC,0.00,VWS V14.00,2013-10-10 12:30:00,
2013-10-10 05:32:00,34.2,13.5,29.76,East,90,1.6,1.6,42,0.00,,SKC,0.00,VWS V14.00,2013-10-10 12:32:00,
2013-10-10 05:33:00,34.0,13.4,29.76,East,90,1.3,1.3,42,0.00,,SKC,0.00,VWS V14.00,2013-10-10 12:33:00,
2013-10-10 05:34:00,34.0,13.4,29.76,East,90,1.6,1.6,42,0.00,,SKC,0.00,VWS V14.00,2013-10-10 12:34:00,
2013-10-10 05:35:00,33.8,13.2,29.76,East,90,1.6,1.6,42,0.00,,SKC,0.00,VWS V14.00,2013-10-10 12:35:00,
2013-10-10 05:36:00,33.7,13.0,29.76,SE,135,2.5,2.5,42,0.00,,SKC,0.00,VWS V14.00,2013-10-10 12:36:00,
2013-10-10 05:37:00,33.5,12.3,29.76,SE,135,1.3,1.3,41,0.00,,SKC,0.00,VWS V14.00,2013-10-10 12:37:00,
2013-10-10 05:39:00,33.3,12.2,29.76,SE,135,1.3,1.3,41,0.00,,SKC,0.00,VWS V14.00,2013-10-10 12:39:00,
2013-10-10 05:40:00,33.1,12.5,29.76,SE,135,2.5,2.5,42,0.00,,SKC,0.00,VWS V14.00,2013-10-10 12:40:00,
2013-10-10 05:41:00,32.8,11.7,29.76,SE,135,0.0,0.0,41,0.00,,SKC,0.00,VWS V14.00,2013-10-10 12:41:00,
2013-10-10 05:42:00,32.8,12.2,29.76,SSE,158,2.0,2.0,42,0.00,,SKC,0.00,VWS V14.00,2013-10-10 12:42:00,
2013-10-10 05:44:00,32.8,12.2,29.76,SSE,158,1.1,1.1,42,0.00,,SKC,0.00,VWS V14.00,2013-10-10 12:44:00,
2013-10-10 05:45:00,32.4,11.9,29.76,South,180,2.0,2.0,42,0.00,,SKC,0.00,VWS V14.00,2013-10-10 12:45:00,
2013-10-10 05:46:00,32.4,11.9,29.76,South,180,2.2,2.2,42,0.00,,SKC,0.00,VWS V14.00,2013-10-10 12:46:00,
2013-10-10 05:47:00,32.2,12.2,29.76,South,180,2.5,2.5,43,0.00,,SKC,0.00,VWS V14.00,2013-10-10 12:47:00,
2013-10-10 05:49:00,32.6,13.6,29.76,SSE,158,1.6,1.6,45,0.00,,SKC,0.00,VWS V14.00,2013-10-10 12:49:00,
2013-10-10 05:50:00,32.6,13.6,29.76,SSE,158,0.0,0.0,45,0.00,,SKC,0.00,VWS V14.00,2013-10-10 12:50:00,
2013-10-10 05:51:00,32.6,12.6,29.76,SSE,158,1.1,1.1,43,0.00,,SKC,0.00,VWS V14.00,2013-10-10 12:51:00,
2013-10-10 05:52:00,32.4,12.4,29.76,SSE,158,1.1,1.1,43,0.00,,SKC,0.00,VWS V14.00,2013-10-10 12:52:00,
2013-10-10 05:53:00,32.2,12.2,29.76,SSE,158,0.0,0.0,43,0.00,,SKC,0.00,VWS V14.00,2013-10-10 12:53:00,
2013-10-10 05:54:00,32.0,12.6,29.76,SSE,158,0.0,0.0,44,0.00,,SKC,0.00,VWS V14.00,2013-10-10 12:54:00,
2013-10-10 05:55:00,32.0,12.6,29.76,SSE,158,0.0,0.0,44,0.00,,SKC,0.00,VWS V14.00,2013-10-10 12:55:00,
2013-10-10 05:56:00,32.0,12.6,29.76,SSE,158,0.9,0.9,44,0.00,,SKC,0.00,VWS V14.00,2013-10-10 12:56:00,
2013-10-10 05:58:00,32.0,12.1,29.76,SSE,158,1.3,1.3,43,0.00,,SKC,0.00,VWS V14.00,2013-10-10 12:58:00,
2013-10-10 05:59:00,32.0,12.6,29.76,North,0,2.9,2.9,44,0.00,,SKC,0.00,VWS V14.00,2013-10-10 12:59:00,
2013-10-10 06:00:00,32.0,12.6,29.76,North,0,2.9,2.9,44,0.00,,SKC,0.00,VWS V14.00,2013-10-10 13:00:00,
2013-10-10 06:02:00,31.5,12.1,29.76,NNE,22,4.0,4.0,44,0.00,,SKC,0.00,VWS V14.00,2013-10-10 13:02:00,
2013-10-10 06:03:00,31.7,12.3,29.76,North,0,4.9,4.9,44,0.00,,SKC,0.00,VWS V14.00,2013-10-10 13:03:00,
2013-10-10 06:04:00,31.9,13.4,29.76,NNE,22,4.0,4.0,46,0.00,,SKC,0.00,VWS V14.00,2013-10-10 13:04:00,
2013-10-10 06:05:00,32.0,13.6,29.76,NNE,22,3.1,3.1,46,0.00,,SKC,0.00,VWS V14.00,2013-10-10 13:05:00,
2013-10-10 06:06:00,32.0,13.6,29.76,NNE,22,2.5,2.5,46,0.00,,SKC,0.00,VWS V14.00,2013-10-10 13:06:00,
2013-10-10 06:07:00,32.4,14.4,29.76,NNE,22,1.6,1.6,47,0.00,,SKC,0.00,VWS V14.00,2013-10-10 13:07:00,
2013-10-10 06:08:00,32.6,14.6,29.76,NNW,338,2.7,2.7,47,0.00,,SKC,0.00,VWS V14.00,2013-10-10 13:08:00,
2013-10-10 06:09:00,32.8,14.3,29.76,NNW,338,2.0,2.0,46,0.00,,SKC,0.00,VWS V14.00,2013-10-10 13:09:00,
2013-10-10 06:10:00,32.9,14.9,29.76,NNW,338,2.5,2.5,47,0.00,,SKC,0.00,VWS V14.00,2013-10-10 13:10:00,
2013-10-10 06:11:00,32.9,14.9,29.76,NNW,338,2.7,2.7,47,0.00,,SKC,0.00,VWS V14.00,2013-10-10 13:11:00,
2013-10-10 06:13:00,32.9,14.9,29.76,NNW,338,1.3,1.3,47,0.00,,SKC,0.00,VWS V14.00,2013-10-10 13:13:00,
2013-10-10 06:15:00,33.1,14.1,29.76,NW,315,2.5,2.5,45,0.00,,SKC,0.00,VWS V14.00,2013-10-10 13:15:00,
2013-10-10 06:16:00,33.1,14.1,29.76,NW,315,0.0,0.0,45,0.00,,SKC,0.00,VWS V14.00,2013-10-10 13:16:00,
2013-10-10 06:18:00,33.1,13.6,29.76,NW,315,0.0,0.0,44,0.00,,SKC,0.00,VWS V14.00,2013-10-10 13:18:00,
2013-10-10 06:20:00,33.3,14.3,29.76,NW,315,0.0,0.0,45,0.00,,SKC,0.00,VWS V14.00,2013-10-10 13:20:00,
2013-10-10 06:21:00,33.3,13.8,29.76,NW,315,0.0,0.0,44,0.00,,SKC,0.00,VWS V14.00,2013-10-10 13:21:00,
2013-10-10 06:22:00,33.1,13.6,29.76,WNW,292,0.0,0.0,44,0.00,,SKC,0.00,VWS V14.00,2013-10-10 13:22:00,
2013-10-10 06:23:00,33.1,13.6,29.76,WNW,292,0.0,0.0,44,0.00,,SKC,0.00,VWS V14.00,2013-10-10 13:23:00,
2013-10-10 06:24:00,33.1,13.6,29.76,WNW,292,1.3,1.3,44,0.00,,SKC,0.00,VWS V14.00,2013-10-10 13:24:00,
2013-10-10 06:25:00,33.1,13.6,29.76,WNW,292,0.0,0.0,44,0.00,,SKC,0.00,VWS V14.00,2013-10-10 13:25:00,
2013-10-10 06:26:00,33.5,13.9,29.76,WNW,292,0.0,0.0,44,0.00,,SKC,0.00,VWS V14.00,2013-10-10 13:26:00,
2013-10-10 06:28:00,33.3,13.2,29.76,West,270,2.5,2.5,43,0.00,,SKC,0.00,VWS V14.00,2013-10-10 13:28:00,
2013-10-10 06:29:00,33.3,13.8,29.76,WNW,292,3.6,3.6,44,0.00,,SKC,0.00,VWS V14.00,2013-10-10 13:29:00,
2013-10-10 06:30:00,33.7,14.1,29.76,NW,315,1.3,1.3,44,0.00,,SKC,0.00,VWS V14.00,2013-10-10 13:30:00,
2013-10-10 06:31:00,33.7,14.1,29.76,WNW,292,2.9,2.9,44,0.00,,SKC,0.00,VWS V14.00,2013-10-10 13:31:00,
2013-10-10 06:33:00,33.8,14.8,29.76,WNW,292,0.0,0.0,45,0.00,,SKC,0.00,VWS V14.00,2013-10-10 13:33:00,
2013-10-10 06:34:00,33.8,14.2,29.76,WNW,292,1.1,1.1,44,0.00,,SKC,0.00,VWS V14.00,2013-10-10 13:34:00,
2013-10-10 06:35:00,33.8,13.7,29.76,WNW,292,0.0,0.0,43,0.00,,SKC,0.00,VWS V14.00,2013-10-10 13:35:00,
2013-10-10 06:36:00,33.8,13.7,29.76,WNW,292,0.0,0.0,43,0.00,,SKC,0.00,VWS V14.00,2013-10-10 13:36:00,
2013-10-10 06:38:00,33.3,13.2,29.76,WNW,292,1.3,1.3,43,0.00,,SKC,0.00,VWS V14.00,2013-10-10 13:38:00,
2013-10-10 06:39:00,33.3,13.2,29.76,WNW,292,0.0,0.0,43,0.00,,SKC,0.00,VWS V14.00,2013-10-10 13:39:00,
2013-10-10 06:40:00,33.3,13.2,29.76,WNW,292,0.0,0.0,43,0.00,,SKC,0.00,VWS V14.00,2013-10-10 13:40:00,
2013-10-10 06:41:00,33.1,13.1,29.76,NNW,338,2.7,2.7,43,0.00,,SKC,0.00,VWS V14.00,2013-10-10 13:41:00,
2013-10-10 06:42:00,33.1,13.6,29.76,NNW,338,0.0,0.0,44,0.00,,SKC,0.00,VWS V14.00,2013-10-10 13:42:00,
2013-10-10 06:43:00,32.9,12.9,29.76,NNW,338,0.0,0.0,43,0.00,,SKC,0.00,VWS V14.00,2013-10-10 13:43:00,
2013-10-10 06:44:00,32.9,12.9,29.76,NNW,338,0.0,0.0,43,0.00,,SKC,0.00,VWS V14.00,2013-10-10 13:44:00,
2013-10-10 06:45:00,32.9,12.9,29.76,NNW,338,0.0,0.0,43,0.00,,SKC,0.00,VWS V14.00,2013-10-10 13:45:00,
2013-10-10 06:46:00,32.9,12.9,29.76,NNW,338,0.0,0.0,43,0.00,,SKC,0.00,VWS V14.00,2013-10-10 13:46:00,
2013-10-10 06:47:00,32.9,12.9,29.76,NNW,338,0.0,0.0,43,0.00,,SKC,0.00,VWS V14.00,2013-10-10 13:47:00,
2013-10-10 06:48:00,32.9,12.9,29.76,WSW,248,0.9,0.9,43,0.00,,SKC,0.00,VWS V14.00,2013-10-10 13:48:00,
2013-10-10 06:49:00,32.9,12.9,29.76,WSW,248,0.0,0.0,43,0.00,,SKC,0.00,VWS V14.00,2013-10-10 13:49:00,
2013-10-10 06:50:00,32.8,12.7,29.76,WSW,248,0.0,0.0,43,0.00,,SKC,0.00,VWS V14.00,2013-10-10 13:50:00,
2013-10-10 06:51:00,32.8,12.2,29.76,WSW,248,0.0,0.0,42,0.00,,SKC,0.00,VWS V14.00,2013-10-10 13:51:00,
2013-10-10 06:52:00,32.8,12.2,29.76,WSW,248,0.0,0.0,42,0.00,,SKC,0.00,VWS V14.00,2013-10-10 13:52:00,
2013-10-10 06:53:00,32.6,12.1,29.76,WSW,248,0.0,0.0,42,0.00,,SKC,0.00,VWS V14.00,2013-10-10 13:53:00,
2013-10-10 06:54:00,32.6,12.1,29.76,WSW,248,0.0,0.0,42,0.00,,SKC,0.00,VWS V14.00,2013-10-10 13:54:00,
2013-10-10 06:55:00,32.4,11.9,29.76,WSW,248,0.0,0.0,42,0.00,,SKC,0.00,VWS V14.00,2013-10-10 13:55:00,
2013-10-10 06:56:00,32.2,12.2,29.76,WSW,248,0.0,0.0,43,0.00,,SKC,0.00,VWS V14.00,2013-10-10 13:56:00,
2013-10-10 06:57:00,32.0,12.1,29.76,WSW,248,0.0,0.0,43,0.00,,SKC,0.00,VWS V14.00,2013-10-10 13:57:00,
2013-10-10 06:58:00,32.0,12.1,29.79,WSW,248,0.0,0.0,43,0.00,,SKC,0.00,VWS V14.00,2013-10-10 13:58:00,
2013-10-10 06:59:00,32.0,12.1,29.79,WSW,248,0.0,0.0,43,0.00,,SKC,0.00,VWS V14.00,2013-10-10 13:59:00,
2013-10-10 07:00:00,32.2,12.2,29.79,WSW,248,0.0,0.0,43,0.00,,SKC,0.00,VWS V14.00,2013-10-10 14:00:00,
2013-10-10 07:01:00,32.2,12.2,29.79,WSW,248,0.0,0.0,43,0.00,,SKC,0.00,VWS V14.00,2013-10-10 14:01:00,
2013-10-10 07:02:00,32.2,12.2,29.79,WSW,248,0.0,0.0,43,0.00,,SKC,0.00,VWS V14.00,2013-10-10 14:02:00,
2013-10-10 07:03:00,32.2,12.2,29.79,WSW,248,0.0,0.0,43,0.00,,SKC,0.00,VWS V14.00,2013-10-10 14:03:00,
2013-10-10 07:04:00,32.2,12.2,29.79,WSW,248,0.0,0.0,43,0.00,,SKC,0.00,VWS V14.00,2013-10-10 14:04:00,
2013-10-10 07:06:00,32.2,12.2,29.79,WSW,248,0.0,0.0,43,0.00,,SKC,0.00,VWS V14.00,2013-10-10 14:06:00,
2013-10-10 07:07:00,32.0,12.1,29.79,WSW,248,0.0,0.0,43,0.00,,SKC,0.00,VWS V14.00,2013-10-10 14:07:00,
2013-10-10 07:09:00,32.0,12.6,29.79,WSW,248,0.0,0.0,44,0.00,,SKC,0.00,VWS V14.00,2013-10-10 14:09:00,
2013-10-10 07:10:00,32.0,12.6,29.79,WSW,248,0.0,0.0,44,0.00,,SKC,0.00,VWS V14.00,2013-10-10 14:10:00,
2013-10-10 07:11:00,32.0,12.6,29.79,WSW,248,0.0,0.0,44,0.00,,SKC,0.00,VWS V14.00,2013-10-10 14:11:00,
2013-10-10 07:12:00,32.0,12.6,29.79,WSW,248,0.0,0.0,44,0.00,,SKC,0.00,VWS V14.00,2013-10-10 14:12:00,
2013-10-10 07:14:00,32.0,12.1,29.79,WSW,248,2.7,2.7,43,0.00,,SKC,0.00,VWS V14.00,2013-10-10 14:14:00,
2013-10-10 07:15:00,32.0,12.6,29.79,WSW,248,1.1,1.1,44,0.00,,SKC,0.00,VWS V14.00,2013-10-10 14:15:00,
2013-10-10 07:16:00,32.0,12.6,29.79,WSW,248,0.9,0.9,44,0.00,,SKC,0.00,VWS V14.00,2013-10-10 14:16:00,
2013-10-10 07:17:00,32.0,12.6,29.79,WSW,248,0.0,0.0,44,0.00,,SKC,0.00,VWS V14.00,2013-10-10 14:17:00,
2013-10-10 07:19:00,32.0,12.1,29.79,NW,315,2.0,2.0,43,0.00,,SKC,0.00,VWS V14.00,2013-10-10 14:19:00,
2013-10-10 07:20:00,32.0,13.1,29.79,NW,315,1.3,1.3,45,0.00,,SKC,0.00,VWS V14.00,2013-10-10 14:20:00,
2013-10-10 07:21:00,32.0,13.1,29.79,NW,315,1.1,1.1,45,0.00,,SKC,0.00,VWS V14.00,2013-10-10 14:21:00,
2013-10-10 07:22:00,32.4,12.9,29.79,NW,315,2.0,2.0,44,0.00,,SKC,0.00,VWS V14.00,2013-10-10 14:22:00,
2013-10-10 07:24:00,33.1,13.6,29.79,NW,315,1.3,1.3,44,0.00,,SKC,0.00,VWS V14.00,2013-10-10 14:24:00,
2013-10-10 07:26:00,33.8,14.2,29.79,NW,315,0.0,0.0,44,0.00,,SKC,0.00,VWS V14.00,2013-10-10 14:26:00,
2013-10-10 07:27:00,34.6,14.4,29.79,NW,315,0.0,0.0,43,0.00,,SKC,0.00,VWS V14.00,2013-10-10 14:27:00,
2013-10-10 07:28:00,34.6,14.4,29.79,NW,315,0.0,0.0,43,0.00,,SKC,0.00,VWS V14.00,2013-10-10 14:28:00,
2013-10-10 07:29:00,35.3,15.0,29.79,NW,315,0.0,0.0,43,0.00,,SKC,0.00,VWS V14.00,2013-10-10 14:29:00,
2013-10-10 07:31:00,35.8,15.5,29.79,NW,315,0.0,0.0,43,0.00,,SKC,0.00,VWS V14.00,2013-10-10 14:31:00,
2013-10-10 07:33:00,36.5,15.6,29.79,NW,315,1.3,1.3,42,0.00,,SKC,0.00,VWS V14.00,2013-10-10 14:33:00,
2013-10-10 07:34:00,37.1,16.1,29.79,NW,315,2.0,2.0,42,0.00,,SKC,0.00,VWS V14.00,2013-10-10 14:34:00,
2013-10-10 07:36:00,37.6,16.6,29.79,NNW,338,0.0,0.0,42,0.00,,SKC,0.00,VWS V14.00,2013-10-10 14:36:00,
2013-10-10 07:38:00,38.5,17.4,29.79,NNW,338,0.0,0.0,42,0.00,,SKC,0.00,VWS V14.00,2013-10-10 14:38:00,
2013-10-10 07:42:00,40.1,18.3,29.79,NNW,338,0.0,0.0,41,0.00,,SKC,0.00,VWS V14.00,2013-10-10 14:42:00,
2013-10-10 07:43:00,40.3,18.5,29.79,NNW,338,0.0,0.0,41,0.00,,SKC,0.00,VWS V14.00,2013-10-10 14:43:00,
2013-10-10 07:47:00,41.0,18.6,29.79,WSW,248,0.0,0.0,40,0.00,,SKC,0.00,VWS V14.00,2013-10-10 14:47:00,
2013-10-10 07:48:00,41.4,18.3,29.79,WSW,248,1.1,1.1,39,0.00,,SKC,0.00,VWS V14.00,2013-10-10 14:48:00,
2013-10-10 07:52:00,41.2,17.5,29.79,WSW,248,2.7,2.7,38,0.00,,SKC,0.00,VWS V14.00,2013-10-10 14:52:00,
2013-10-10 07:53:00,41.2,17.5,29.79,WSW,248,2.7,2.7,38,0.00,,SKC,0.00,VWS V14.00,2013-10-10 14:53:00,
2013-10-10 07:54:00,40.3,16.8,29.79,WSW,248,1.3,1.3,38,0.00,,SKC,0.00,VWS V14.00,2013-10-10 14:54:00,
2013-10-10 07:57:00,40.0,16.4,29.79,South,180,0.0,0.0,38,0.00,,SKC,0.00,VWS V14.00,2013-10-10 14:57:00,
2013-10-10 07:58:00,39.6,16.1,29.79,South,180,0.0,0.0,38,0.00,,SKC,0.00,VWS V14.00,2013-10-10 14:58:00,
2013-10-10 07:59:00,39.6,16.1,29.79,South,180,0.0,0.0,38,0.00,,SKC,0.00,VWS V14.00,2013-10-10 14:59:00,
2013-10-10 08:02:00,39.4,15.9,29.79,ESE,112,2.5,2.5,38,0.00,,SKC,0.00,VWS V14.00,2013-10-10 15:02:00,
2013-10-10 08:03:00,39.2,15.8,29.79,SE,135,3.4,3.4,38,0.00,,SKC,0.00,VWS V14.00,2013-10-10 15:03:00,
2013-10-10 08:04:00,39.2,15.8,29.79,SE,135,3.8,3.8,38,0.00,,SKC,0.00,VWS V14.00,2013-10-10 15:04:00,
2013-10-10 08:07:00,38.9,15.4,29.79,South,180,2.2,2.2,38,0.00,,SKC,0.00,VWS V14.00,2013-10-10 15:07:00,
2013-10-10 08:08:00,38.7,15.3,29.79,South,180,1.1,1.1,38,0.00,,SKC,0.00,VWS V14.00,2013-10-10 15:08:00,
2013-10-10 08:09:00,38.7,15.3,29.79,South,180,2.2,2.2,38,0.00,,SKC,0.00,VWS V14.00,2013-10-10 15:09:00,
2013-10-10 08:13:00,38.9,15.4,29.79,South,180,1.6,1.6,38,0.00,,SKC,0.00,VWS V14.00,2013-10-10 15:13:00,
2013-10-10 08:14:00,38.9,15.4,29.79,South,180,2.9,2.9,38,0.00,,SKC,0.00,VWS V14.00,2013-10-10 15:14:00,
2013-10-10 08:18:00,38.9,15.4,29.79,South,180,1.6,1.6,38,0.00,,SKC,0.00,VWS V14.00,2013-10-10 15:18:00,
2013-10-10 08:19:00,39.1,15.6,29.79,South,180,1.6,1.6,38,0.00,,SKC,0.00,VWS V14.00,2013-10-10 15:19:00,
2013-10-10 08:23:00,39.6,16.1,29.79,South,180,0.0,0.0,38,0.00,,SKC,0.00,VWS V14.00,2013-10-10 15:23:00,
2013-10-10 08:24:00,39.8,16.3,29.79,South,180,0.0,0.0,38,0.00,,SKC,0.00,VWS V14.00,2013-10-10 15:24:00,
2013-10-10 08:25:00,40.0,16.4,29.79,South,180,0.0,0.0,38,0.00,,SKC,0.00,VWS V14.00,2013-10-10 15:25:00,
2013-10-10 08:28:00,40.9,17.2,29.82,South,180,0.0,0.0,38,0.00,,SKC,0.00,VWS V14.00,2013-10-10 15:28:00,
2013-10-10 08:29:00,41.2,17.5,29.82,South,180,0.0,0.0,38,0.00,,SKC,0.00,VWS V14.00,2013-10-10 15:29:00,
2013-10-10 08:30:00,41.2,17.5,29.82,South,180,0.0,0.0,38,0.00,,SKC,0.00,VWS V14.00,2013-10-10 15:30:00,
2013-10-10 08:33:00,41.9,17.6,29.82,South,180,0.0,0.0,37,0.00,,SKC,0.00,VWS V14.00,2013-10-10 15:33:00,
2013-10-10 08:34:00,42.1,17.7,29.82,South,180,0.0,0.0,37,0.00,,SKC,0.00,VWS V14.00,2013-10-10 15:34:00,
2013-10-10 08:35:00,42.1,17.7,29.82,South,180,0.0,0.0,37,0.00,,SKC,0.00,VWS V14.00,2013-10-10 15:35:00,
2013-10-10 08:38:00,42.7,18.2,29.82,SSW,202,1.6,1.6,37,0.00,,SKC,0.00,VWS V14.00,2013-10-10 15:38:00,
2013-10-10 08:40:00,42.8,17.8,29.82,WSW,248,0.0,0.0,36,0.00,,SKC,0.00,VWS V14.00,2013-10-10 15:40:00,
2013-10-10 08:43:00,43.2,16.7,29.82,SW,225,2.9,2.9,34,0.00,,SKC,0.00,VWS V14.00,2013-10-10 15:43:00,
2013-10-10 08:44:00,43.2,16.7,29.82,SW,225,2.7,2.7,34,0.00,,SKC,0.00,VWS V14.00,2013-10-10 15:44:00,
2013-10-10 08:45:00,43.4,16.2,29.82,SW,225,5.4,5.4,33,0.00,,SKC,0.00,VWS V14.00,2013-10-10 15:45:00,
2013-10-10 08:46:00,43.7,16.5,29.82,SW,225,3.1,3.1,33,0.00,,SKC,0.00,VWS V14.00,2013-10-10 15:46:00,
2013-10-10 08:48:00,44.3,17.0,29.82,SW,225,3.1,3.1,33,0.00,,SKC,0.00,VWS V14.00,2013-10-10 15:48:00,
2013-10-10 08:49:00,44.6,16.6,29.82,South,180,2.9,2.9,32,0.00,,SKC,0.00,VWS V14.00,2013-10-10 15:49:00,
2013-10-10 08:50:00,44.6,16.6,29.82,SW,225,2.9,2.9,32,0.00,,SKC,0.00,VWS V14.00,2013-10-10 15:50:00,
2013-10-10 08:51:00,45.4,17.2,29.82,SW,225,3.1,3.1,32,0.00,,SKC,0.00,VWS V14.00,2013-10-10 15:51:00,
2013-10-10 08:54:00,45.5,15.9,29.82,SSW,202,4.5,4.5,30,0.00,,SKC,0.00,VWS V14.00,2013-10-10 15:54:00,
2013-10-10 08:55:00,45.9,16.2,29.82,SW,225,2.5,2.5,30,0.00,,SKC,0.00,VWS V14.00,2013-10-10 15:55:00,
2013-10-10 08:56:00,45.9,16.2,29.82,SW,225,3.1,3.1,30,0.00,,SKC,0.00,VWS V14.00,2013-10-10 15:56:00,
2013-10-10 08:57:00,46.1,15.6,29.82,SW,225,3.6,3.6,29,0.00,,SKC,0.00,VWS V14.00,2013-10-10 15:57:00,
2013-10-10 08:59:00,46.6,16.1,29.79,South,180,4.3,4.3,29,0.00,,SKC,0.00,VWS V14.00,2013-10-10 15:59:00,
2013-10-10 09:01:00,47.0,15.6,29.79,South,180,2.7,2.7,28,0.00,,SKC,0.00,VWS V14.00,2013-10-10 16:01:00,
2013-10-10 09:02:00,47.2,15.7,29.79,SW,225,3.1,3.1,28,0.00,,SKC,0.00,VWS V14.00,2013-10-10 16:02:00,
2013-10-10 09:04:00,47.3,15.9,29.79,SW,225,4.7,4.7,28,0.00,,SKC,0.00,VWS V14.00,2013-10-10 16:04:00,
2013-10-10 09:05:00,47.5,16.0,29.79,SW,225,4.9,4.9,28,0.00,,SKC,0.00,VWS V14.00,2013-10-10 16:05:00,
2013-10-10 09:06:00,47.5,16.0,29.79,SW,225,4.3,4.3,28,0.00,,SKC,0.00,VWS V14.00,2013-10-10 16:06:00,
2013-10-10 09:07:00,47.7,15.4,29.79,SW,225,3.4,3.4,27,0.00,,SKC,0.00,VWS V14.00,2013-10-10 16:07:00,
2013-10-10 09:09:00,47.7,15.4,29.79,SW,225,3.4,3.4,27,0.00,,SKC,0.00,VWS V14.00,2013-10-10 16:09:00,
2013-10-10 09:10:00,47.7,15.4,29.79,SW,225,3.4,3.4,27,0.00,,SKC,0.00,VWS V14.00,2013-10-10 16:10:00,
2013-10-10 09:11:00,47.7,15.4,29.79,SW,225,3.1,3.1,27,0.00,,SKC,0.00,VWS V14.00,2013-10-10 16:11:00,
2013-10-10 09:12:00,47.9,15.5,29.79,SW,225,3.6,3.6,27,0.00,,SKC,0.00,VWS V14.00,2013-10-10 16:12:00,
2013-10-10 09:14:00,48.1,15.7,29.82,SW,225,4.3,4.3,27,0.00,,SKC,0.00,VWS V14.00,2013-10-10 16:14:00,
2013-10-10 09:16:00,48.1,15.7,29.82,SW,225,3.8,3.8,27,0.00,,SKC,0.00,VWS V14.00,2013-10-10 16:16:00,
2013-10-10 09:17:00,47.9,15.5,29.82,West,270,5.8,5.8,27,0.00,,SKC,0.00,VWS V14.00,2013-10-10 16:17:00,
2013-10-10 09:18:00,48.1,15.7,29.82,SW,225,4.9,4.9,27,0.00,,SKC,0.00,VWS V14.00,2013-10-10 16:18:00,
2013-10-10 09:20:00,48.4,16.0,29.82,SW,225,0.0,0.0,27,0.00,,SKC,0.00,VWS V14.00,2013-10-10 16:20:00,
2013-10-10 09:21:00,48.6,15.3,29.82,West,270,2.9,2.9,26,0.00,,SKC,0.00,VWS V14.00,2013-10-10 16:21:00,
2013-10-10 09:22:00,48.8,15.4,29.82,West,270,2.5,2.5,26,0.00,,SKC,0.00,VWS V14.00,2013-10-10 16:22:00,
2013-10-10 09:23:00,49.1,15.8,29.82,West,270,0.0,0.0,26,0.00,,SKC,0.00,VWS V14.00,2013-10-10 16:23:00,
2013-10-10 09:25:00,49.5,16.0,29.82,SSW,202,2.9,2.9,26,0.00,,SKC,0.00,VWS V14.00,2013-10-10 16:25:00,
2013-10-10 09:26:00,49.5,16.0,29.82,SW,225,2.5,2.5,26,0.00,,SKC,0.00,VWS V14.00,2013-10-10 16:26:00,
2013-10-10 09:27:00,49.5,16.0,29.82,SW,225,2.7,2.7,26,0.00,,SKC,0.00,VWS V14.00,2013-10-10 16:27:00,
2013-10-10 09:28:00,49.5,16.0,29.82,SSW,202,2.5,2.5,26,0.00,,SKC,0.00,VWS V14.00,2013-10-10 16:28:00,
2013-10-10 09:29:00,49.7,16.2,29.82,WSW,248,1.3,1.3,26,0.00,,SKC,0.00,VWS V14.00,2013-10-10 16:29:00,
2013-10-10 09:30:00,49.7,16.2,29.82,SW,225,2.5,2.5,26,0.00,,SKC,0.00,VWS V14.00,2013-10-10 16:30:00,
2013-10-10 09:31:00,49.5,16.0,29.82,West,270,2.7,2.7,26,0.00,,SKC,0.00,VWS V14.00,2013-10-10 16:31:00,
2013-10-10 09:32:00,49.9,16.4,29.82,WSW,248,3.1,3.1,26,0.00,,SKC,0.00,VWS V14.00,2013-10-10 16:32:00,
2013-10-10 09:33:00,49.5,16.0,29.82,WSW,248,3.4,3.4,26,0.00,,SKC,0.00,VWS V14.00,2013-10-10 16:33:00,
2013-10-10 09:34:00,49.7,16.2,29.82,SSW,202,4.3,4.3,26,0.00,,SKC,0.00,VWS V14.00,2013-10-10 16:34:00,
2013-10-10 09:35:00,50.0,16.5,29.82,SSW,202,1.3,1.3,26,0.00,,SKC,0.00,VWS V14.00,2013-10-10 16:35:00,
2013-10-10 09:36:00,50.6,16.1,29.82,SSW,202,0.0,0.0,25,0.00,,SKC,0.00,VWS V14.00,2013-10-10 16:36:00,
2013-10-10 09:37:00,50.6,16.1,29.82,SSW,202,1.6,1.6,25,0.00,,SKC,0.00,VWS V14.00,2013-10-10 16:37:00,
2013-10-10 09:38:00,50.6,16.1,29.82,SW,225,1.6,1.6,25,0.00,,SKC,0.00,VWS V14.00,2013-10-10 16:38:00,
2013-10-10 09:39:00,51.1,16.5,29.82,SW,225,2.5,2.5,25,0.00,,SKC,0.00,VWS V14.00,2013-10-10 16:39:00,
2013-10-10 09:40:00,51.1,16.5,29.82,SW,225,2.9,2.9,25,0.00,,SKC,0.00,VWS V14.00,2013-10-10 16:40:00,
2013-10-10 09:42:00,51.3,16.7,29.82,SW,225,3.4,3.4,25,0.00,,SKC,0.00,VWS V14.00,2013-10-10 16:42:00,
2013-10-10 09:43:00,51.1,16.5,29.82,South,180,4.9,4.9,25,0.00,,SKC,0.00,VWS V14.00,2013-10-10 16:43:00,
2013-10-10 09:44:00,50.9,16.4,29.82,SW,225,4.3,4.3,25,0.00,,SKC,0.00,VWS V14.00,2013-10-10 16:44:00,
2013-10-10 09:45:00,50.9,16.4,29.82,SSW,202,3.4,3.4,25,0.00,,SKC,0.00,VWS V14.00,2013-10-10 16:45:00,
2013-10-10 09:47:00,51.3,16.7,29.82,SW,225,4.0,4.0,25,0.00,,SKC,0.00,VWS V14.00,2013-10-10 16:47:00,
2013-10-10 09:48:00,51.5,16.8,29.82,SW,225,3.6,3.6,25,0.00,,SKC,0.00,VWS V14.00,2013-10-10 16:48:00,
2013-10-10 09:49:00,51.7,17.0,29.82,SSW,202,3.8,3.8,25,0.00,,SKC,0.00,VWS V14.00,2013-10-10 16:49:00,
2013-10-10 09:50:00,51.8,17.1,29.82,South,180,2.9,2.9,25,0.00,,SKC,0.00,VWS V14.00,2013-10-10 16:50:00,
2013-10-10 09:52:00,51.7,17.0,29.82,South,180,1.6,1.6,25,0.00,,SKC,0.00,VWS V14.00,2013-10-10 16:52:00,
2013-10-10 09:53:00,51.5,16.8,29.82,South,180,3.4,3.4,25,0.00,,SKC,0.00,VWS V14.00,2013-10-10 16:53:00,
2013-10-10 09:54:00,51.5,16.8,29.82,South,180,0.0,0.0,25,0.00,,SKC,0.00,VWS V14.00,2013-10-10 16:54:00,
2013-10-10 09:55:00,51.3,16.7,29.82,SW,225,3.6,3.6,25,0.00,,SKC,0.00,VWS V14.00,2013-10-10 16:55:00,
2013-10-10 09:57:00,50.9,16.4,29.82,SW,225,4.3,4.3,25,0.00,,SKC,0.00,VWS V14.00,2013-10-10 16:57:00,
2013-10-10 09:58:00,50.9,16.4,29.82,SSW,202,3.8,3.8,25,0.00,,SKC,0.00,VWS V14.00,2013-10-10 16:58:00,
2013-10-10 09:59:00,50.8,16.2,29.82,South,180,3.8,3.8,25,0.00,,SKC,0.00,VWS V14.00,2013-10-10 16:59:00,
2013-10-10 10:00:00,50.8,16.2,29.82,South,180,3.6,3.6,25,0.00,,SKC,0.00,VWS V14.00,2013-10-10 17:00:00,
2013-10-10 10:02:00,51.3,16.7,29.82,South,180,2.9,2.9,25,0.00,,SKC,0.00,VWS V14.00,2013-10-10 17:02:00,
2013-10-10 10:03:00,51.8,17.1,29.82,South,180,3.8,3.8,25,0.00,,SKC,0.00,VWS V14.00,2013-10-10 17:03:00,
2013-10-10 10:05:00,52.6,14.8,29.82,SSW,202,5.4,5.4,22,0.00,,SKC,0.00,VWS V14.00,2013-10-10 17:05:00,
2013-10-10 10:06:00,52.6,14.8,29.82,SSW,202,5.6,5.6,22,0.00,,SKC,0.00,VWS V14.00,2013-10-10 17:06:00,
2013-10-10 10:08:00,53.1,15.3,29.82,SE,135,3.6,3.6,22,0.00,,SKC,0.00,VWS V14.00,2013-10-10 17:08:00,
2013-10-10 10:11:00,53.5,15.6,29.82,SW,225,4.9,4.9,22,0.00,,SKC,0.00,VWS V14.00,2013-10-10 17:11:00,
2013-10-10 10:13:00,52.9,15.1,29.82,SW,225,4.0,4.0,22,0.00,,SKC,0.00,VWS V14.00,2013-10-10 17:13:00,
2013-10-10 10:16:00,52.9,15.1,29.82,SSW,202,3.6,3.6,22,0.00,,SKC,0.00,VWS V14.00,2013-10-10 17:16:00,
2013-10-10 10:17:00,52.9,15.1,29.82,SSW,202,2.0,2.0,22,0.00,,SKC,0.00,VWS V14.00,2013-10-10 17:17:00,
2013-10-10 10:18:00,53.5,15.6,29.82,SSW,202,2.9,2.9,22,0.00,,SKC,0.00,VWS V14.00,2013-10-10 17:18:00,
2013-10-10 10:21:00,53.8,15.9,29.82,SW,225,4.9,4.9,22,0.00,,SKC,0.00,VWS V14.00,2013-10-10 17:21:00,
2013-10-10 10:22:00,53.6,15.7,29.82,SW,225,3.4,3.4,22,0.00,,SKC,0.00,VWS V14.00,2013-10-10 17:22:00,
2013-10-10 10:23:00,53.6,15.7,29.82,SW,225,3.4,3.4,22,0.00,,SKC,0.00,VWS V14.00,2013-10-10 17:23:00,
2013-10-10 10:24:00,53.6,15.7,29.82,SW,225,4.3,4.3,22,0.00,,SKC,0.00,VWS V14.00,2013-10-10 17:24:00,
2013-10-10 10:26:00,53.5,12.2,29.82,SSW,202,3.1,3.1,19,0.00,,SKC,0.00,VWS V14.00,2013-10-10 17:26:00,
2013-10-10 10:27:00,53.5,12.2,29.82,SW,225,1.6,1.6,19,0.00,,SKC,0.00,VWS V14.00,2013-10-10 17:27:00,
2013-10-10 10:28:00,54.0,16.0,29.79,SW,225,0.9,0.9,22,0.00,,SKC,0.00,VWS V14.00,2013-10-10 17:28:00,
2013-10-10 10:29:00,54.0,16.0,29.79,SW,225,0.0,0.0,22,0.00,,SKC,0.00,VWS V14.00,2013-10-10 17:29:00,
2013-10-10 10:31:00,54.9,16.8,29.79,SW,225,0.0,0.0,22,0.00,,SKC,0.00,VWS V14.00,2013-10-10 17:31:00,
2013-10-10 10:32:00,54.9,16.8,29.79,SW,225,2.7,2.7,22,0.00,,SKC,0.00,VWS V14.00,2013-10-10 17:32:00,
2013-10-10 10:34:00,54.9,13.4,29.79,SSW,202,2.9,2.9,19,0.00,,SKC,0.00,VWS V14.00,2013-10-10 17:34:00,
2013-10-10 10:36:00,54.5,13.1,29.79,SW,225,2.9,2.9,19,0.00,,SKC,0.00,VWS V14.00,2013-10-10 17:36:00,
2013-10-10 10:37:00,54.5,13.1,29.79,SW,225,3.1,3.1,19,0.00,,SKC,0.00,VWS V14.00,2013-10-10 17:37:00,
2013-10-10 10:38:00,54.5,13.1,29.79,South,180,5.4,5.4,19,0.00,,SKC,0.00,VWS V14.00,2013-10-10 17:38:00,
2013-10-10 10:39:00,54.4,13.0,29.79,SW,225,3.4,3.4,19,0.00,,SKC,0.00,VWS V14.00,2013-10-10 17:39:00,
2013-10-10 10:40:00,54.2,12.8,29.79,West,270,1.1,1.1,19,0.00,,SKC,0.00,VWS V14.00,2013-10-10 17:40:00,
2013-10-10 10:41:00,54.9,13.4,29.79,West,270,3.4,3.4,19,0.00,,SKC,0.00,VWS V14.00,2013-10-10 17:41:00,
2013-10-10 10:42:00,55.3,13.7,29.79,NW,315,0.0,0.0,19,0.00,,SKC,0.00,VWS V14.00,2013-10-10 17:42:00,
2013-10-10 10:43:00,55.3,13.7,29.79,NW,315,2.0,2.0,19,0.00,,SKC,0.00,VWS V14.00,2013-10-10 17:43:00,
2013-10-10 10:44:00,55.4,13.9,29.82,SW,225,2.9,2.9,19,0.00,,SKC,0.00,VWS V14.00,2013-10-10 17:44:00,
2013-10-10 10:45:00,56.2,14.5,29.82,South,180,2.7,2.7,19,0.00,,SKC,0.00,VWS V14.00,2013-10-10 17:45:00,
2013-10-10 10:47:00,55.8,14.2,29.82,SSW,202,2.0,2.0,19,0.00,,SKC,0.00,VWS V14.00,2013-10-10 17:47:00,
2013-10-10 13:02:00,66.6,15.9,29.79,WNW,292,6.0,6.0,14,0.00,,SKC,0.00,VWS V14.00,2013-10-10 20:02:00,
2013-10-10 13:03:00,66.6,15.9,29.79,NW,315,4.9,4.9,14,0.00,,SKC,0.00,VWS V14.00,2013-10-10 20:03:00,
2013-10-10 13:07:00,66.6,15.9,29.79,NNW,338,7.6,7.6,14,0.00,,SKC,0.00,VWS V14.00,2013-10-10 20:07:00,
2013-10-10 13:08:00,66.2,15.7,29.79,NW,315,7.2,7.2,14,0.00,,SKC,0.00,VWS V14.00,2013-10-10 20:08:00,
2013-10-10 13:12:00,67.7,16.8,29.79,WNW,292,6.3,6.3,14,0.00,,SKC,0.00,VWS V14.00,2013-10-10 20:12:00,
2013-10-10 13:13:00,67.7,16.8,29.79,WNW,292,6.3,6.3,14,0.00,,SKC,0.00,VWS V14.00,2013-10-10 20:13:00,
2013-10-10 13:17:00,66.6,15.9,29.79,North,0,4.3,4.3,14,0.00,,SKC,0.00,VWS V14.00,2013-10-10 20:17:00,
2013-10-10 13:18:00,66.6,15.9,29.79,NNE,22,4.0,4.0,14,0.00,,SKC,0.00,VWS V14.00,2013-10-10 20:18:00,
2013-10-10 13:22:00,67.0,16.2,29.79,NW,315,6.3,6.3,14,0.00,,SKC,0.00,VWS V14.00,2013-10-10 20:22:00,
2013-10-10 13:26:00,67.9,17.0,29.79,West,270,2.7,2.7,14,0.00,,SKC,0.00,VWS V14.00,2013-10-10 20:26:00,
2013-10-10 13:27:00,67.9,17.0,29.79,West,270,2.5,2.5,14,0.00,,SKC,0.00,VWS V14.00,2013-10-10 20:27:00,
2013-10-10 13:28:00,69.5,16.5,29.79,NNW,338,1.6,1.6,13,0.00,,SKC,0.00,VWS V14.00,2013-10-10 20:28:00,
2013-10-10 13:31:00,70.4,17.2,29.79,NNE,22,2.2,2.2,13,0.00,,SKC,0.00,VWS V14.00,2013-10-10 20:31:00,
2013-10-10 13:33:00,70.4,17.2,29.79,WNW,292,2.5,2.5,13,0.00,,SKC,0.00,VWS V14.00,2013-10-10 20:33:00,
2013-10-10 13:36:00,70.4,17.2,29.79,North,0,6.5,6.5,13,0.00,,SKC,0.00,VWS V14.00,2013-10-10 20:36:00,
2013-10-10 13:37:00,68.8,15.9,29.79,NNE,22,9.2,9.2,13,0.00,,SKC,0.00,VWS V14.00,2013-10-10 20:37:00,
2013-10-10 13:38:00,68.8,15.9,29.79,North,0,6.5,6.5,13,0.00,,SKC,0.00,VWS V14.00,2013-10-10 20:38:00,
2013-10-10 13:41:00,68.6,15.8,29.79,NNW,338,6.3,6.3,13,0.00,,SKC,0.00,VWS V14.00,2013-10-10 20:41:00,
2013-10-10 13:42:00,68.6,15.8,29.79,NNW,338,7.8,7.8,13,0.00,,SKC,0.00,VWS V14.00,2013-10-10 20:42:00,
2013-10-10 13:43:00,68.6,15.8,29.79,NNE,22,7.2,7.2,13,0.00,,SKC,0.00,VWS V14.00,2013-10-10 20:43:00,
2013-10-10 13:47:00,67.7,16.8,29.79,North,0,3.4,3.4,14,0.00,,SKC,0.00,VWS V14.00,2013-10-10 20:47:00,
2013-10-10 13:48:00,68.2,17.2,29.79,East,90,0.0,0.0,14,0.00,,SKC,0.00,VWS V14.00,2013-10-10 20:48:00,
2013-10-10 13:52:00,68.6,15.8,29.79,WNW,292,4.9,4.9,13,0.00,,SKC,0.00,VWS V14.00,2013-10-10 20:52:00,
2013-10-10 13:53:00,68.4,15.7,29.79,NW,315,5.8,5.8,13,0.00,,SKC,0.00,VWS V14.00,2013-10-10 20:53:00,
2013-10-10 13:57:00,68.0,17.1,29.79,NNW,338,6.3,6.3,14,0.00,,SKC,0.00,VWS V14.00,2013-10-10 20:57:00,
2013-10-10 13:58:00,68.6,15.8,29.79,NNW,338,2.5,2.5,13,0.00,,SKC,0.00,VWS V14.00,2013-10-10 20:58:00,
2013-10-10 14:02:00,70.0,17.0,29.79,West,270,2.0,2.0,13,0.00,,SKC,0.00,VWS V14.00,2013-10-10 21:02:00,
2013-10-10 14:03:00,69.7,16.7,29.79,NW,315,4.9,4.9,13,0.00,,SKC,0.00,VWS V14.00,2013-10-10 21:03:00,
2013-10-10 14:04:00,70.2,17.1,29.79,WNW,292,2.7,2.7,13,0.00,,SKC,0.00,VWS V14.00,2013-10-10 21:04:00,
2013-10-10 14:07:00,69.7,16.7,29.79,North,0,10.3,10.3,13,0.00,,SKC,0.00,VWS V14.00,2013-10-10 21:07:00,
2013-10-10 14:08:00,68.9,16.1,29.79,North,0,7.8,7.8,13,0.00,,SKC,0.00,VWS V14.00,2013-10-10 21:08:00,
2013-10-10 14:10:00,69.5,16.5,29.79,NW,315,4.9,4.9,13,0.00,,SKC,0.00,VWS V14.00,2013-10-10 21:10:00,
2013-10-10 14:12:00,69.3,16.4,29.79,WNW,292,7.4,7.4,13,0.00,,SKC,0.00,VWS V14.00,2013-10-10 21:12:00,
2013-10-10 14:13:00,69.1,16.2,29.79,NW,315,4.9,4.9,13,0.00,,SKC,0.00,VWS V14.00,2013-10-10 21:13:00,
2013-10-10 14:14:00,69.1,16.2,29.79,North,0,6.3,6.3,13,0.00,,SKC,0.00,VWS V14.00,2013-10-10 21:14:00,
2013-10-10 14:15:00,69.1,16.2,29.79,North,0,6.3,6.3,13,0.00,,SKC,0.00,VWS V14.00,2013-10-10 21:15:00,
2013-10-10 14:17:00,67.1,16.4,29.79,NW,315,7.2,7.2,14,0.00,,SKC,0.00,VWS V14.00,2013-10-10 21:17:00,
2013-10-10 14:18:00,67.5,16.7,29.79,NNW,338,14.1,14.1,14,0.00,,SKC,0.00,VWS V14.00,2013-10-10 21:18:00,
2013-10-10 14:19:00,67.0,16.2,29.79,NNW,338,9.6,9.6,14,0.00,,SKC,0.00,VWS V14.00,2013-10-10 21:19:00,
2013-10-10 14:20:00,66.8,16.1,29.79,North,0,9.8,9.8,14,0.00,,SKC,0.00,VWS V14.00,2013-10-10 21:20:00,
2013-10-10 14:22:00,66.4,15.8,29.79,NNW,338,7.4,7.4,14,0.00,,SKC,0.00,VWS V14.00,2013-10-10 21:22:00,
2013-10-10 14:23:00,66.4,15.8,29.79,NNW,338,8.7,8.7,14,0.00,,SKC,0.00,VWS V14.00,2013-10-10 21:23:00,
2013-10-10 14:24:00,66.4,15.8,29.79,NNE,22,9.4,9.4,14,0.00,,SKC,0.00,VWS V14.00,2013-10-10 21:24:00,
2013-10-10 14:25:00,67.1,16.4,29.79,NNW,338,7.6,7.6,14,0.00,,SKC,0.00,VWS V14.00,2013-10-10 21:25:00,
2013-10-10 14:27:00,67.1,16.4,29.79,NNW,338,8.7,8.7,14,0.00,,SKC,0.00,VWS V14.00,2013-10-10 21:27:00,
2013-10-10 14:29:00,66.2,15.7,29.79,NNW,338,6.0,6.0,14,0.00,,SKC,0.00,VWS V14.00,2013-10-10 21:29:00,
2013-10-10 14:31:00,66.8,16.1,29.79,NNW,338,10.1,10.1,14,0.00,,SKC,0.00,VWS V14.00,2013-10-10 21:31:00,
2013-10-10 14:32:00,66.2,15.7,29.79,NW,315,8.7,8.7,14,0.00,,SKC,0.00,VWS V14.00,2013-10-10 21:32:00,
2013-10-10 14:34:00,65.9,15.4,29.79,North,0,11.0,11.0,14,0.00,,SKC,0.00,VWS V14.00,2013-10-10 21:34:00,
2013-10-10 14:36:00,65.7,15.2,29.79,NW,315,10.1,10.1,14,0.00,,SKC,0.00,VWS V14.00,2013-10-10 21:36:00,
2013-10-10 14:38:00,65.9,15.4,29.79,WNW,292,6.3,6.3,14,0.00,,SKC,0.00,VWS V14.00,2013-10-10 21:38:00,
2013-10-10 14:39:00,67.0,16.2,29.79,NW,315,5.8,5.8,14,0.00,,SKC,0.00,VWS V14.00,2013-10-10 21:39:00,
2013-10-10 14:40:00,67.0,16.2,29.79,WNW,292,6.0,6.0,14,0.00,,SKC,0.00,VWS V14.00,2013-10-10 21:40:00,
2013-10-10 14:41:00,67.3,16.5,29.79,NNW,338,10.7,10.7,14,0.00,,SKC,0.00,VWS V14.00,2013-10-10 21:41:00,
2013-10-10 14:43:00,66.4,15.8,29.79,NW,315,9.6,9.6,14,0.00,,SKC,0.00,VWS V14.00,2013-10-10 21:43:00,
2013-10-10 14:44:00,66.4,15.8,29.79,NNW,338,10.3,10.3,14,0.00,,SKC,0.00,VWS V14.00,2013-10-10 21:44:00,
2013-10-10 14:45:00,66.4,15.8,29.79,WNW,292,7.8,7.8,14,0.00,,SKC,0.00,VWS V14.00,2013-10-10 21:45:00,
2013-10-10 14:47:00,66.8,16.1,29.79,North,0,8.7,8.7,14,0.00,,SKC,0.00,VWS V14.00,2013-10-10 21:47:00,
2013-10-10 14:49:00,67.3,16.5,29.79,North,0,6.0,6.0,14,0.00,,SKC,0.00,VWS V14.00,2013-10-10 21:49:00,
2013-10-10 14:50:00,67.5,16.7,29.79,NW,315,3.1,3.1,14,0.00,,SKC,0.00,VWS V14.00,2013-10-10 21:50:00,
2013-10-10 14:52:00,66.6,15.9,29.79,North,0,8.5,8.5,14,0.00,,SKC,0.00,VWS V14.00,2013-10-10 21:52:00,
2013-10-10 14:54:00,66.6,15.9,29.79,NNE,22,4.0,4.0,14,0.00,,SKC,0.00,VWS V14.00,2013-10-10 21:54:00,
2013-10-10 14:55:00,66.6,15.9,29.79,North,0,4.0,4.0,14,0.00,,SKC,0.00,VWS V14.00,2013-10-10 21:55:00,
2013-10-10 14:56:00,66.8,16.1,29.79,North,0,6.5,6.5,14,0.00,,SKC,0.00,VWS V14.00,2013-10-10 21:56:00,
2013-10-10 14:57:00,66.8,16.1,29.79,NNW,338,6.3,6.3,14,0.00,,SKC,0.00,VWS V14.00,2013-10-10 21:57:00,
2013-10-10 14:59:00,63.5,15.1,29.79,NW,315,4.9,4.9,15,0.00,,SKC,0.00,VWS V14.00,2013-10-10 21:59:00,
2013-10-10 15:00:00,63.5,15.1,29.79,NW,315,6.5,6.5,15,0.00,,SKC,0.00,VWS V14.00,2013-10-10 22:00:00,
2013-10-10 15:01:00,63.5,15.1,29.79,North,0,5.8,5.8,15,0.00,,SKC,0.00,VWS V14.00,2013-10-10 22:01:00,
2013-10-10 15:02:00,64.1,15.5,29.79,NW,315,7.4,7.4,15,0.00,,SKC,0.00,VWS V14.00,2013-10-10 22:02:00,
2013-10-10 15:04:00,64.1,15.5,29.79,NW,315,7.4,7.4,15,0.00,,SKC,0.00,VWS V14.00,2013-10-10 22:04:00,
2013-10-10 15:05:00,64.8,14.5,29.79,NNW,338,4.9,4.9,14,0.00,,SKC,0.00,VWS V14.00,2013-10-10 22:05:00,
2013-10-10 15:06:00,65.3,14.9,29.79,NNW,338,6.3,6.3,14,0.00,,SKC,0.00,VWS V14.00,2013-10-10 22:06:00,
2013-10-10 15:08:00,65.3,14.9,29.79,North,0,6.9,6.9,14,0.00,,SKC,0.00,VWS V14.00,2013-10-10 22:08:00,
2013-10-10 15:10:00,65.3,14.9,29.79,NW,315,5.4,5.4,14,0.00,,SKC,0.00,VWS V14.00,2013-10-10 22:10:00,
2013-10-10 15:11:00,65.3,14.9,29.79,NNW,338,4.7,4.7,14,0.00,,SKC,0.00,VWS V14.00,2013-10-10 22:11:00,
2013-10-10 15:12:00,65.3,14.9,29.79,WNW,292,10.1,10.1,14,0.00,,SKC,0.00,VWS V14.00,2013-10-10 22:12:00,
2013-10-10 15:13:00,65.3,14.9,29.79,WNW,292,5.8,5.8,14,0.00,,SKC,0.00,VWS V14.00,2013-10-10 22:13:00,
2013-10-10 15:15:00,66.1,15.5,29.79,NW,315,6.0,6.0,14,0.00,,SKC,0.00,VWS V14.00,2013-10-10 22:15:00,
2013-10-10 15:16:00,66.1,15.5,29.79,NW,315,6.5,6.5,14,0.00,,SKC,0.00,VWS V14.00,2013-10-10 22:16:00,
2013-10-10 15:17:00,66.1,15.5,29.79,NNW,338,5.6,5.6,14,0.00,,SKC,0.00,VWS V14.00,2013-10-10 22:17:00,
2013-10-10 15:19:00,66.1,15.5,29.79,North,0,7.6,7.6,14,0.00,,SKC,0.00,VWS V14.00,2013-10-10 22:19:00,
2013-10-10 15:20:00,66.4,15.8,29.79,NNW,338,8.5,8.5,14,0.00,,SKC,0.00,VWS V14.00,2013-10-10 22:20:00,
2013-10-10 15:21:00,66.4,15.8,29.79,NNE,22,6.0,6.0,14,0.00,,SKC,0.00,VWS V14.00,2013-10-10 22:21:00,
2013-10-10 15:22:00,66.4,15.8,29.79,NNW,338,10.3,10.3,14,0.00,,SKC,0.00,VWS V14.00,2013-10-10 22:22:00,
2013-10-10 15:24:00,66.4,15.8,29.79,NNW,338,6.3,6.3,14,0.00,,SKC,0.00,VWS V14.00,2013-10-10 22:24:00,
2013-10-10 15:25:00,66.4,15.8,29.79,NNW,338,6.7,6.7,14,0.00,,SKC,0.00,VWS V14.00,2013-10-10 22:25:00,
2013-10-10 15:26:00,66.4,15.8,29.79,NNW,338,6.5,6.5,14,0.00,,SKC,0.00,VWS V14.00,2013-10-10 22:26:00,
2013-10-10 15:27:00,66.4,15.8,29.79,NNW,338,4.9,4.9,14,0.00,,SKC,0.00,VWS V14.00,2013-10-10 22:27:00,
2013-10-10 15:29:00,66.4,15.8,29.79,NW,315,10.1,10.1,14,0.00,,SKC,0.00,VWS V14.00,2013-10-10 22:29:00,
2013-10-10 15:30:00,65.7,15.2,29.79,NNW,338,7.4,7.4,14,0.00,,SKC,0.00,VWS V14.00,2013-10-10 22:30:00,
2013-10-10 15:31:00,65.7,15.2,29.79,NW,315,8.1,8.1,14,0.00,,SKC,0.00,VWS V14.00,2013-10-10 22:31:00,
2013-10-10 15:32:00,65.7,15.2,29.79,NNW,338,8.5,8.5,14,0.00,,SKC,0.00,VWS V14.00,2013-10-10 22:32:00,
2013-10-10 15:34:00,65.7,15.2,29.79,NNE,22,11.0,11.0,14,0.00,,SKC,0.00,VWS V14.00,2013-10-10 22:34:00,
2013-10-10 15:35:00,65.7,15.2,29.79,NNW,338,7.8,7.8,14,0.00,,SKC,0.00,VWS V14.00,2013-10-10 22:35:00,
2013-10-10 15:36:00,65.7,15.2,29.79,NW,315,8.7,8.7,14,0.00,,SKC,0.00,VWS V14.00,2013-10-10 22:36:00,
2013-10-10 15:37:00,65.7,15.2,29.79,NNW,338,10.1,10.1,14,0.00,,SKC,0.00,VWS V14.00,2013-10-10 22:37:00,
2013-10-10 15:38:00,65.7,15.2,29.79,NNW,338,11.0,11.0,14,0.00,,SKC,0.00,VWS V14.00,2013-10-10 22:38:00,
2013-10-10 15:39:00,65.3,14.9,29.79,North,0,12.5,12.5,14,0.00,,SKC,0.00,VWS V14.00,2013-10-10 22:39:00,
2013-10-10 15:40:00,65.5,15.1,29.79,NW,315,7.4,7.4,14,0.00,,SKC,0.00,VWS V14.00,2013-10-10 22:40:00,
2013-10-10 15:41:00,65.9,15.4,29.79,NW,315,7.6,7.6,14,0.00,,SKC,0.00,VWS V14.00,2013-10-10 22:41:00,
2013-10-10 15:42:00,65.9,15.4,29.79,NNE,22,8.7,8.7,14,0.00,,SKC,0.00,VWS V14.00,2013-10-10 22:42:00,
2013-10-10 15:43:00,65.5,15.1,29.79,NNW,338,10.5,10.5,14,0.00,,SKC,0.00,VWS V14.00,2013-10-10 22:43:00,
2013-10-10 15:44:00,65.2,14.8,29.79,NNE,22,12.3,12.3,14,0.00,,SKC,0.00,VWS V14.00,2013-10-10 22:44:00,
2013-10-10 15:45:00,65.2,14.8,29.79,NNE,22,10.7,10.7,14,0.00,,SKC,0.00,VWS V14.00,2013-10-10 22:45:00,
2013-10-10 15:46:00,65.2,14.8,29.79,North,0,8.7,8.7,14,0.00,,SKC,0.00,VWS V14.00,2013-10-10 22:46:00,
2013-10-10 15:47:00,65.2,14.8,29.79,NNW,338,8.5,8.5,14,0.00,,SKC,0.00,VWS V14.00,2013-10-10 22:47:00,
2013-10-10 15:48:00,65.3,14.9,29.79,North,0,8.1,8.1,14,0.00,,SKC,0.00,VWS V14.00,2013-10-10 22:48:00,
2013-10-10 15:50:00,65.5,15.1,29.79,North,0,8.1,8.1,14,0.00,,SKC,0.00,VWS V14.00,2013-10-10 22:50:00,
2013-10-10 15:51:00,65.7,15.2,29.79,NNW,338,5.8,5.8,14,0.00,,SKC,0.00,VWS V14.00,2013-10-10 22:51:00,
2013-10-10 15:52:00,66.1,15.5,29.79,NNW,338,6.0,6.0,14,0.00,,SKC,0.00,VWS V14.00,2013-10-10 22:52:00,
2013-10-10 15:54:00,67.0,16.2,29.79,NNW,338,5.8,5.8,14,0.00,,SKC,0.00,VWS V14.00,2013-10-10 22:54:00,
2013-10-10 15:55:00,66.6,15.9,29.79,WNW,292,10.1,10.1,14,0.00,,SKC,0.00,VWS V14.00,2013-10-10 22:55:00,
2013-10-10 15:56:00,66.4,15.8,29.79,NW,315,10.3,10.3,14,0.00,,SKC,0.00,VWS V14.00,2013-10-10 22:56:00,
2013-10-10 15:57:00,66.6,15.9,29.79,NNW,338,8.1,8.1,14,0.00,,SKC,0.00,VWS V14.00,2013-10-10 22:57:00,
2013-10-10 15:59:00,66.2,15.7,29.79,NW,315,11.0,11.0,14,0.00,,SKC,0.00,VWS V14.00,2013-10-10 22:59:00,
2013-10-10 16:00:00,66.1,15.5,29.79,WNW,292,7.4,7.4,14,0.00,,SKC,0.00,VWS V14.00,2013-10-10 23:00:00,
2013-10-10 16:01:00,66.1,15.5,29.79,NW,315,8.5,8.5,14,0.00,,SKC,0.00,VWS V14.00,2013-10-10 23:01:00,
2013-10-10 16:02:00,65.9,15.4,29.79,NNW,338,9.4,9.4,14,0.00,,SKC,0.00,VWS V14.00,2013-10-10 23:02:00,
2013-10-10 16:05:00,65.7,15.2,29.79,NNW,338,4.9,4.9,14,0.00,,SKC,0.00,VWS V14.00,2013-10-10 23:05:00,
2013-10-10 16:06:00,65.7,15.2,29.79,NW,315,3.8,3.8,14,0.00,,SKC,0.00,VWS V14.00,2013-10-10 23:06:00,
2013-10-10 16:07:00,65.0,14.7,29.79,NE,45,13.0,13.0,14,0.00,,SKC,0.00,VWS V14.00,2013-10-10 23:07:00,
2013-10-10 16:10:00,65.3,14.9,29.79,NNE,22,11.0,11.0,14,0.00,,SKC,0.00,VWS V14.00,2013-10-10 23:10:00,
2013-10-10 16:11:00,65.0,14.7,29.79,NE,45,8.7,8.7,14,0.00,,SKC,0.00,VWS V14.00,2013-10-10 23:11:00,
2013-10-10 16:12:00,65.2,14.8,29.79,NNE,22,8.5,8.5,14,0.00,,SKC,0.00,VWS V14.00,2013-10-10 23:12:00,
2013-10-10 16:15:00,65.2,14.8,29.79,East,90,5.4,5.4,14,0.00,,SKC,0.00,VWS V14.00,2013-10-10 23:15:00,
2013-10-10 16:16:00,65.3,14.9,29.79,North,0,5.4,5.4,14,0.00,,SKC,0.00,VWS V14.00,2013-10-10 23:16:00,
2013-10-10 16:18:00,65.3,14.9,29.79,NNE,22,8.7,8.7,14,0.00,,SKC,0.00,VWS V14.00,2013-10-10 23:18:00,
2013-10-10 16:20:00,65.2,14.8,29.79,NE,45,6.0,6.0,14,0.00,,SKC,0.00,VWS V14.00,2013-10-10 23:20:00,
2013-10-10 16:21:00,65.3,14.9,29.79,North,0,7.6,7.6,14,0.00,,SKC,0.00,VWS V14.00,2013-10-10 23:21:00,
2013-10-10 16:23:00,64.6,15.9,29.79,North,0,8.1,8.1,15,0.00,,SKC,0.00,VWS V14.00,2013-10-10 23:23:00,
2013-10-10 16:26:00,63.7,15.2,29.79,North,0,6.3,6.3,15,0.00,,SKC,0.00,VWS V14.00,2013-10-10 23:26:00,
2013-10-10 16:27:00,63.5,15.1,29.79,North,0,9.8,9.8,15,0.00,,SKC,0.00,VWS V14.00,2013-10-10 23:27:00,
2013-10-10 16:28:00,63.0,14.6,29.79,NNE,22,12.3,12.3,15,0.00,,SKC,0.00,VWS V14.00,2013-10-10 23:28:00,
2013-10-10 16:31:00,63.0,14.6,29.79,North,0,8.7,8.7,15,0.00,,SKC,0.00,VWS V14.00,2013-10-10 23:31:00,
2013-10-10 16:32:00,63.0,14.6,29.79,North,0,8.7,8.7,15,0.00,,SKC,0.00,VWS V14.00,2013-10-10 23:32:00,
2013-10-10 16:33:00,63.2,14.8,29.79,North,0,8.7,8.7,15,0.00,,SKC,0.00,VWS V14.00,2013-10-10 23:33:00,
2013-10-10 16:36:00,63.2,14.8,29.79,NNW,338,7.4,7.4,15,0.00,,SKC,0.00,VWS V14.00,2013-10-10 23:36:00,
2013-10-10 16:37:00,63.2,14.8,29.79,NNE,22,8.7,8.7,15,0.00,,SKC,0.00,VWS V14.00,2013-10-10 23:37:00,
2013-10-10 16:38:00,63.2,14.8,29.79,North,0,10.3,10.3,15,0.00,,SKC,0.00,VWS V14.00,2013-10-10 23:38:00,
2013-10-10 16:41:00,63.2,14.8,29.79,NE,45,5.4,5.4,15,0.00,,SKC,0.00,VWS V14.00,2013-10-10 23:41:00,
2013-10-10 16:42:00,63.4,14.9,29.79,NNE,22,6.0,6.0,15,0.00,,SKC,0.00,VWS V14.00,2013-10-10 23:42:00,
2013-10-10 16:43:00,63.4,14.9,29.79,NNE,22,4.9,4.9,15,0.00,,SKC,0.00,VWS V14.00,2013-10-10 23:43:00,
2013-10-10 16:47:00,63.2,14.8,29.79,NNE,22,8.7,8.7,15,0.00,,SKC,0.00,VWS V14.00,2013-10-10 23:47:00,
2013-10-10 16:48:00,63.0,14.6,29.79,NNE,22,5.6,5.6,15,0.00,,SKC,0.00,VWS V14.00,2013-10-10 23:48:00,
2013-10-10 16:49:00,63.0,14.6,29.79,NNE,22,7.8,7.8,15,0.00,,SKC,0.00,VWS V14.00,2013-10-10 23:49:00,
2013-10-10 16:52:00,62.3,14.1,29.79,NNW,338,8.5,8.5,15,0.00,,SKC,0.00,VWS V14.00,2013-10-10 23:52:00,
2013-10-10 16:53:00,62.3,14.1,29.79,NNW,338,8.5,8.5,15,0.00,,SKC,0.00,VWS V14.00,2013-10-10 23:53:00,
2013-10-10 16:54:00,62.5,14.2,29.79,North,0,8.7,8.7,15,0.00,,SKC,0.00,VWS V14.00,2013-10-10 23:54:00,
2013-10-10 16:58:00,62.1,13.9,29.79,NNE,22,8.1,8.1,15,0.00,,SKC,0.00,VWS V14.00,2013-10-10 23:58:00,
2013-10-10 16:59:00,62.1,13.9,29.79,North,0,9.6,9.6,15,0.00,,SKC,0.00,VWS V14.00,2013-10-10 23:59:00,
2013-10-10 17:00:00,62.1,13.9,29.79,North,0,8.5,8.5,15,0.00,,SKC,0.00,VWS V14.00,2013-10-11 00:00:00,
2013-10-10 17:03:00,62.3,14.1,29.79,North,0,8.5,8.5,15,0.00,,SKC,0.00,VWS V14.00,2013-10-11 00:03:00,
2013-10-10 17:04:00,61.9,13.8,29.79,North,0,9.8,9.8,15,0.00,,SKC,0.00,VWS V14.00,2013-10-11 00:04:00,
2013-10-10 17:05:00,61.9,13.8,29.79,North,0,7.6,7.6,15,0.00,,SKC,0.00,VWS V14.00,2013-10-11 00:05:00,
2013-10-10 17:08:00,61.7,13.6,29.79,NNE,22,10.5,10.5,15,0.00,,SKC,0.00,VWS V14.00,2013-10-11 00:08:00,
2013-10-10 17:09:00,61.6,13.5,29.79,NNE,22,6.9,6.9,15,0.00,,SKC,0.00,VWS V14.00,2013-10-11 00:09:00,
2013-10-10 17:10:00,61.6,13.5,29.79,NNE,22,5.4,5.4,15,0.00,,SKC,0.00,VWS V14.00,2013-10-11 00:10:00,
2013-10-10 17:13:00,61.6,13.5,29.79,NE,45,5.4,5.4,15,0.00,,SKC,0.00,VWS V14.00,2013-10-11 00:13:00,
2013-10-10 17:14:00,61.6,13.5,29.79,NNE,22,3.4,3.4,15,0.00,,SKC,0.00,VWS V14.00,2013-10-11 00:14:00,
2013-10-10 17:16:00,61.4,13.4,29.79,NNE,22,7.6,7.6,15,0.00,,SKC,0.00,VWS V14.00,2013-10-11 00:16:00,
2013-10-10 17:18:00,61.4,13.4,29.79,NNE,22,7.8,7.8,15,0.00,,SKC,0.00,VWS V14.00,2013-10-11 00:18:00,
2013-10-10 17:19:00,61.4,13.4,29.79,NE,45,5.4,5.4,15,0.00,,SKC,0.00,VWS V14.00,2013-10-11 00:19:00,
2013-10-10 17:21:00,61.0,13.1,29.79,NNE,22,9.8,9.8,15,0.00,,SKC,0.00,VWS V14.00,2013-10-11 00:21:00,
2013-10-10 17:23:00,61.0,13.1,29.79,NNE,22,5.8,5.8,15,0.00,,SKC,0.00,VWS V14.00,2013-10-11 00:23:00,
2013-10-10 17:24:00,61.0,13.1,29.79,NE,45,4.9,4.9,15,0.00,,SKC,0.00,VWS V14.00,2013-10-11 00:24:00,
2013-10-10 17:26:00,61.0,13.1,29.79,NE,45,8.5,8.5,15,0.00,,SKC,0.00,VWS V14.00,2013-10-11 00:26:00,
2013-10-10 17:28:00,60.7,12.8,29.79,NNE,22,7.6,7.6,15,0.00,,SKC,0.00,VWS V14.00,2013-10-11 00:28:00,
2013-10-10 17:29:00,60.7,12.8,29.79,ENE,68,8.1,8.1,15,0.00,,SKC,0.00,VWS V14.00,2013-10-11 00:29:00,
2013-10-10 17:32:00,60.1,12.3,29.79,NNE,22,8.5,8.5,15,0.00,,SKC,0.00,VWS V14.00,2013-10-11 00:32:00,
2013-10-10 17:33:00,60.1,12.3,29.79,NNE,22,7.4,7.4,15,0.00,,SKC,0.00,VWS V14.00,2013-10-11 00:33:00,
2013-10-10 17:34:00,60.1,12.3,29.79,NNE,22,9.0,9.0,15,0.00,,SKC,0.00,VWS V14.00,2013-10-11 00:34:00,
2013-10-10 17:37:00,59.6,11.9,29.79,NNE,22,6.5,6.5,15,0.00,,SKC,0.00,VWS V14.00,2013-10-11 00:37:00,
2013-10-10 17:38:00,59.6,11.9,29.79,NNE,22,5.8,5.8,15,0.00,,SKC,0.00,VWS V14.00,2013-10-11 00:38:00,
2013-10-10 17:39:00,59.6,11.9,29.79,NNE,22,8.1,8.1,15,0.00,,SKC,0.00,VWS V14.00,2013-10-11 00:39:00,
2013-10-10 17:40:00,59.4,11.8,29.79,NE,45,9.6,9.6,15,0.00,,SKC,0.00,VWS V14.00,2013-10-11 00:40:00,
2013-10-10 17:42:00,59.4,11.8,29.79,North,0,6.0,6.0,15,0.00,,SKC,0.00,VWS V14.00,2013-10-11 00:42:00,
2013-10-10 17:44:00,59.4,11.8,29.82,NNE,22,8.1,8.1,15,0.00,,SKC,0.00,VWS V14.00,2013-10-11 00:44:00,
2013-10-10 17:45:00,59.4,11.8,29.82,North,0,6.0,6.0,15,0.00,,SKC,0.00,VWS V14.00,2013-10-11 00:45:00,
2013-10-10 17:48:00,59.4,11.8,29.82,NE,45,6.5,6.5,15,0.00,,SKC,0.00,VWS V14.00,2013-10-11 00:48:00,
2013-10-10 17:49:00,59.4,11.8,29.82,NNE,22,7.2,7.2,15,0.00,,SKC,0.00,VWS V14.00,2013-10-11 00:49:00,
2013-10-10 17:50:00,59.4,11.8,29.82,NNE,22,7.8,7.8,15,0.00,,SKC,0.00,VWS V14.00,2013-10-11 00:50:00,
2013-10-10 17:54:00,58.5,12.5,29.82,NNE,22,5.6,5.6,16,0.00,,SKC,0.00,VWS V14.00,2013-10-11 00:54:00,
2013-10-10 17:55:00,58.3,12.3,29.82,NNE,22,4.0,4.0,16,0.00,,SKC,0.00,VWS V14.00,2013-10-11 00:55:00,
2013-10-10 17:56:00,58.1,12.2,29.82,NNE,22,6.3,6.3,16,0.00,,SKC,0.00,VWS V14.00,2013-10-11 00:56:00,
2013-10-10 17:59:00,57.8,11.9,29.82,NNE,22,5.8,5.8,16,0.00,,SKC,0.00,VWS V14.00,2013-10-11 00:59:00,
2013-10-10 18:00:00,57.6,11.8,29.82,NNE,22,7.8,7.8,16,0.00,,SKC,0.00,VWS V14.00,2013-10-11 01:00:00,
2013-10-10 18:01:00,57.6,11.8,29.82,North,0,5.4,5.4,16,0.00,,SKC,0.00,VWS V14.00,2013-10-11 01:01:00,
2013-10-10 18:04:00,57.2,11.5,29.82,North,0,3.6,3.6,16,0.00,,SKC,0.00,VWS V14.00,2013-10-11 01:04:00,
2013-10-10 18:05:00,57.1,11.3,29.82,NE,45,5.6,5.6,16,0.00,,SKC,0.00,VWS V14.00,2013-10-11 01:05:00,
2013-10-10 18:06:00,56.9,11.2,29.82,North,0,9.0,9.0,16,0.00,,SKC,0.00,VWS V14.00,2013-10-11 01:06:00,
2013-10-10 18:09:00,56.3,10.7,29.82,NNE,22,5.8,5.8,16,0.00,,SKC,0.00,VWS V14.00,2013-10-11 01:09:00,
2013-10-10 18:10:00,56.3,10.7,29.82,North,0,6.0,6.0,16,0.00,,SKC,0.00,VWS V14.00,2013-10-11 01:10:00,
2013-10-10 18:11:00,56.2,10.6,29.82,NNE,22,3.4,3.4,16,0.00,,SKC,0.00,VWS V14.00,2013-10-11 01:11:00,
2013-10-10 18:14:00,55.4,11.4,29.82,NNE,22,4.0,4.0,17,0.00,,SKC,0.00,VWS V14.00,2013-10-11 01:14:00,
2013-10-10 18:15:00,55.4,11.4,29.82,NNE,22,2.5,2.5,17,0.00,,SKC,0.00,VWS V14.00,2013-10-11 01:15:00,
2013-10-10 18:16:00,55.4,11.4,29.82,North,0,4.0,4.0,17,0.00,,SKC,0.00,VWS V14.00,2013-10-11 01:16:00,
2013-10-10 18:19:00,54.7,10.8,29.82,NNE,22,2.7,2.7,17,0.00,,SKC,0.00,VWS V14.00,2013-10-11 01:19:00,
2013-10-10 18:20:00,54.7,10.8,29.82,NNE,22,3.1,3.1,17,0.00,,SKC,0.00,VWS V14.00,2013-10-11 01:20:00,
2013-10-10 18:21:00,54.4,10.5,29.82,NE,45,4.9,4.9,17,0.00,,SKC,0.00,VWS V14.00,2013-10-11 01:21:00,
2013-10-10 18:22:00,54.4,10.5,29.82,NE,45,3.4,3.4,17,0.00,,SKC,0.00,VWS V14.00,2013-10-11 01:22:00,
2013-10-10 18:25:00,54.2,10.3,29.82,NE,45,5.6,5.6,17,0.00,,SKC,0.00,VWS V14.00,2013-10-11 01:25:00,
2013-10-10 18:27:00,54.0,10.2,29.82,NNE,22,3.6,3.6,17,0.00,,SKC,0.00,VWS V14.00,2013-10-11 01:27:00,
2013-10-10 18:30:00,53.6,9.9,29.82,North,0,2.9,2.9,17,0.00,,SKC,0.00,VWS V14.00,2013-10-11 01:30:00,
2013-10-10 18:31:00,53.6,9.9,29.82,NNE,22,1.6,1.6,17,0.00,,SKC,0.00,VWS V14.00,2013-10-11 01:31:00,
2013-10-10 18:32:00,53.5,9.8,29.82,NNE,22,3.4,3.4,17,0.00,,SKC,0.00,VWS V14.00,2013-10-11 01:32:00,
2013-10-10 18:35:00,53.1,9.4,29.82,North,0,3.6,3.6,17,0.00,,SKC,0.00,VWS V14.00,2013-10-11 01:35:00,
2013-10-10 18:36:00,53.1,9.4,29.82,NNE,22,3.8,3.8,17,0.00,,SKC,0.00,VWS V14.00,2013-10-11 01:36:00,
2013-10-10 18:37:00,52.9,9.3,29.82,NNE,22,5.4,5.4,17,0.00,,SKC,0.00,VWS V14.00,2013-10-11 01:37:00,
2013-10-10 18:38:00,52.9,9.3,29.82,North,0,4.9,4.9,17,0.00,,SKC,0.00,VWS V14.00,2013-10-11 01:38:00,
2013-10-10 18:40:00,52.7,9.2,29.82,NNE,22,4.9,4.9,17,0.00,,SKC,0.00,VWS V14.00,2013-10-11 01:40:00,
2013-10-10 18:41:00,52.7,9.2,29.82,NNE,22,3.6,3.6,17,0.00,,SKC,0.00,VWS V14.00,2013-10-11 01:41:00,
2013-10-10 18:42:00,52.6,9.0,29.82,North,0,3.8,3.8,17,0.00,,SKC,0.00,VWS V14.00,2013-10-11 01:42:00,
2013-10-10 18:43:00,52.6,9.0,29.82,NNE,22,5.6,5.6,17,0.00,,SKC,0.00,VWS V14.00,2013-10-11 01:43:00,
2013-10-10 18:45:00,52.6,9.0,29.82,NNE,22,7.4,7.4,17,0.00,,SKC,0.00,VWS V14.00,2013-10-11 01:45:00,
2013-10-10 18:46:00,52.6,9.0,29.82,NNE,22,4.3,4.3,17,0.00,,SKC,0.00,VWS V14.00,2013-10-11 01:46:00,
2013-10-10 18:47:00,52.6,9.0,29.82,NNE,22,6.3,6.3,17,0.00,,SKC,0.00,VWS V14.00,2013-10-11 01:47:00,
2013-10-10 18:48:00,52.6,9.0,29.82,NNE,22,4.9,4.9,17,0.00,,SKC,0.00,VWS V14.00,2013-10-11 01:48:00,
2013-10-10 18:50:00,52.4,8.9,29.82,North,0,4.5,4.5,17,0.00,,SKC,0.00,VWS V14.00,2013-10-11 01:50:00,
2013-10-10 18:51:00,52.4,8.9,29.82,North,0,3.4,3.4,17,0.00,,SKC,0.00,VWS V14.00,2013-10-11 01:51:00,
2013-10-10 18:52:00,52.4,8.9,29.82,NNE,22,3.4,3.4,17,0.00,,SKC,0.00,VWS V14.00,2013-10-11 01:52:00,
2013-10-10 18:53:00,52.2,8.7,29.82,NNE,22,4.9,4.9,17,0.00,,SKC,0.00,VWS V14.00,2013-10-11 01:53:00,
2013-10-10 18:55:00,52.0,8.6,29.82,NNE,22,6.5,6.5,17,0.00,,SKC,0.00,VWS V14.00,2013-10-11 01:55:00,
2013-10-10 18:56:00,52.0,8.6,29.82,NNE,22,5.4,5.4,17,0.00,,SKC,0.00,VWS V14.00,2013-10-11 01:56:00,
2013-10-10 18:57:00,52.0,8.6,29.82,North,0,4.3,4.3,17,0.00,,SKC,0.00,VWS V14.00,2013-10-11 01:57:00,
2013-10-10 18:58:00,51.8,8.4,29.82,NNE,22,5.4,5.4,17,0.00,,SKC,0.00,VWS V14.00,2013-10-11 01:58:00,
2013-10-10 19:00:00,51.8,8.4,29.82,North,0,5.6,5.6,17,0.00,,SKC,0.00,VWS V14.00,2013-10-11 02:00:00,
2013-10-10 19:01:00,51.8,8.4,29.82,North,0,4.9,4.9,17,0.00,,SKC,0.00,VWS V14.00,2013-10-11 02:01:00,
2013-10-10 19:02:00,51.7,8.3,29.82,NNE,22,4.3,4.3,17,0.00,,SKC,0.00,VWS V14.00,2013-10-11 02:02:00,
2013-10-10 19:03:00,51.7,8.3,29.82,NNE,22,3.8,3.8,17,0.00,,SKC,0.00,VWS V14.00,2013-10-11 02:03:00,
2013-10-10 19:05:00,51.7,8.3,29.82,NNE,22,5.6,5.6,17,0.00,,SKC,0.00,VWS V14.00,2013-10-11 02:05:00,
2013-10-10 19:06:00,51.7,8.3,29.82,NNE,22,3.4,3.4,17,0.00,,SKC,0.00,VWS V14.00,2013-10-11 02:06:00,
2013-10-10 19:08:00,51.5,8.1,29.82,NNE,22,3.8,3.8,17,0.00,,SKC,0.00,VWS V14.00,2013-10-11 02:08:00,
2013-10-10 19:10:00,51.3,8.0,29.82,North,0,3.8,3.8,17,0.00,,SKC,0.00,VWS V14.00,2013-10-11 02:10:00,
2013-10-10 19:11:00,51.3,8.0,29.82,NNE,22,4.0,4.0,17,0.00,,SKC,0.00,VWS V14.00,2013-10-11 02:11:00,
2013-10-10 19:12:00,51.1,7.8,29.82,NE,45,3.1,3.1,17,0.00,,SKC,0.00,VWS V14.00,2013-10-11 02:12:00,
2013-10-10 19:13:00,51.1,5.1,29.82,North,0,3.8,3.8,15,0.00,,SKC,0.00,VWS V14.00,2013-10-11 02:13:00,
2013-10-10 19:14:00,50.9,4.9,29.82,NNE,22,3.8,3.8,15,0.00,,SKC,0.00,VWS V14.00,2013-10-11 02:14:00,
2013-10-10 19:15:00,50.9,7.7,29.82,NNE,22,2.7,2.7,17,0.00,,SKC,0.00,VWS V14.00,2013-10-11 02:15:00,
2013-10-10 19:16:00,50.8,7.5,29.82,NNE,22,2.9,2.9,17,0.00,,SKC,0.00,VWS V14.00,2013-10-11 02:16:00,
2013-10-10 19:17:00,50.8,7.5,29.82,NNE,22,3.1,3.1,17,0.00,,SKC,0.00,VWS V14.00,2013-10-11 02:17:00,
2013-10-10 19:18:00,50.8,7.5,29.82,North,0,2.7,2.7,17,0.00,,SKC,0.00,VWS V14.00,2013-10-11 02:18:00,
2013-10-10 19:19:00,50.6,4.7,29.82,NNW,338,4.0,4.0,15,0.00,,SKC,0.00,VWS V14.00,2013-10-11 02:19:00,
2013-10-10 19:20:00,50.2,4.4,29.82,North,0,2.7,2.7,15,0.00,,SKC,0.00,VWS V14.00,2013-10-11 02:20:00,
2013-10-10 19:21:00,50.2,4.4,29.82,NNE,22,2.9,2.9,15,0.00,,SKC,0.00,VWS V14.00,2013-10-11 02:21:00,
2013-10-10 19:22:00,50.2,4.4,29.82,NNW,338,2.2,2.2,15,0.00,,SKC,0.00,VWS V14.00,2013-10-11 02:22:00,
2013-10-10 19:23:00,50.0,4.2,29.82,NE,45,0.0,0.0,15,0.00,,SKC,0.00,VWS V14.00,2013-10-11 02:23:00,
2013-10-10 19:24:00,49.9,4.1,29.82,NE,45,0.0,0.0,15,0.00,,SKC,0.00,VWS V14.00,2013-10-11 02:24:00,
2013-10-10 19:26:00,49.7,3.9,29.82,SE,135,0.9,0.9,15,0.00,,SKC,0.00,VWS V14.00,2013-10-11 02:26:00,
2013-10-10 19:27:00,49.5,3.8,29.82,South,180,2.5,2.5,15,0.00,,SKC,0.00,VWS V14.00,2013-10-11 02:27:00,
2013-10-10 19:28:00,49.3,3.6,29.82,SSW,202,4.3,4.3,15,0.00,,SKC,0.00,VWS V14.00,2013-10-11 02:28:00,
2013-10-10 19:29:00,49.1,3.5,29.82,SSW,202,3.1,3.1,15,0.00,,SKC,0.00,VWS V14.00,2013-10-11 02:29:00,
2013-10-10 19:30:00,49.0,3.3,29.82,SSW,202,2.5,2.5,15,0.00,,SKC,0.00,VWS V14.00,2013-10-11 02:30:00,
2013-10-10 19:31:00,48.8,3.2,29.82,SSW,202,2.7,2.7,15,0.00,,SKC,0.00,VWS V14.00,2013-10-11 02:31:00,
2013-10-10 19:33:00,48.4,4.3,29.82,SSW,202,0.9,0.9,16,0.00,,SKC,0.00,VWS V14.00,2013-10-11 02:33:00,
2013-10-10 19:35:00,48.1,4.0,29.82,SSW,202,0.0,0.0,16,0.00,,SKC,0.00,VWS V14.00,2013-10-11 02:35:00,
2013-10-10 19:36:00,47.9,3.9,29.82,South,180,2.7,2.7,16,0.00,,SKC,0.00,VWS V14.00,2013-10-11 02:36:00,
2013-10-10 19:38:00,47.5,3.6,29.82,South,180,2.9,2.9,16,0.00,,SKC,0.00,VWS V14.00,2013-10-11 02:38:00,
2013-10-10 19:39:00,47.5,3.6,29.82,South,180,2.9,2.9,16,0.00,,SKC,0.00,VWS V14.00,2013-10-11 02:39:00,
2013-10-10 19:40:00,47.7,3.7,29.82,SSE,158,0.0,0.0,16,0.00,,SKC,0.00,VWS V14.00,2013-10-11 02:40:00,
2013-10-10 19:41:00,47.7,3.7,29.82,NE,45,2.0,2.0,16,0.00,,SKC,0.00,VWS V14.00,2013-10-11 02:41:00,
2013-10-10 19:43:00,47.7,3.7,29.82,East,90,1.6,1.6,16,0.00,,SKC,0.00,VWS V14.00,2013-10-11 02:43:00,
2013-10-10 19:44:00,47.7,3.7,29.82,East,90,1.6,1.6,16,0.00,,SKC,0.00,VWS V14.00,2013-10-11 02:44:00,
2013-10-10 19:45:00,47.7,3.7,29.82,East,90,2.2,2.2,16,0.00,,SKC,0.00,VWS V14.00,2013-10-11 02:45:00,
2013-10-10 19:46:00,47.5,3.6,29.82,East,90,0.9,0.9,16,0.00,,SKC,0.00,VWS V14.00,2013-10-11 02:46:00,
2013-10-10 19:47:00,47.5,3.6,29.82,ENE,68,1.6,1.6,16,0.00,,SKC,0.00,VWS V14.00,2013-10-11 02:47:00,
2013-10-10 19:49:00,47.7,3.7,29.82,ENE,68,2.5,2.5,16,0.00,,SKC,0.00,VWS V14.00,2013-10-11 02:49:00,
2013-10-10 19:50:00,47.7,3.7,29.82,ENE,68,0.0,0.0,16,0.00,,SKC,0.00,VWS V14.00,2013-10-11 02:50:00,
2013-10-10 19:51:00,47.7,3.7,29.82,ENE,68,0.0,0.0,16,0.00,,SKC,0.00,VWS V14.00,2013-10-11 02:51:00,
2013-10-10 19:52:00,47.7,3.7,29.82,ENE,68,0.0,0.0,16,0.00,,SKC,0.00,VWS V14.00,2013-10-11 02:52:00,
2013-10-10 19:54:00,47.7,3.7,29.82,NNW,338,0.0,0.0,16,0.00,,SKC,0.00,VWS V14.00,2013-10-11 02:54:00,
2013-10-10 19:55:00,47.3,3.4,29.82,NNW,338,0.0,0.0,16,0.00,,SKC,0.00,VWS V14.00,2013-10-11 02:55:00,
2013-10-10 19:56:00,47.3,3.4,29.82,NNW,338,0.0,0.0,16,0.00,,SKC,0.00,VWS V14.00,2013-10-11 02:56:00,
2013-10-10 19:58:00,47.0,3.1,29.82,NNW,338,0.0,0.0,16,0.00,,SKC,0.00,VWS V14.00,2013-10-11 02:58:00,
2013-10-10 19:59:00,46.6,2.8,29.82,NNW,338,0.0,0.0,16,0.00,,SKC,0.00,VWS V14.00,2013-10-11 02:59:00,
2013-10-10 20:01:00,46.8,3.0,29.82,North,0,0.9,0.9,16,0.00,,SKC,0.00,VWS V14.00,2013-10-11 03:01:00,
2013-10-10 20:02:00,46.8,3.0,29.82,SE,135,0.0,0.0,16,0.00,,SKC,0.00,VWS V14.00,2013-10-11 03:02:00,
2013-10-10 20:03:00,46.8,3.0,29.82,SE,135,0.0,0.0,16,0.00,,SKC,0.00,VWS V14.00,2013-10-11 03:03:00,
2013-10-10 20:05:00,46.8,3.0,29.82,SE,135,0.0,0.0,16,0.00,,SKC,0.00,VWS V14.00,2013-10-11 03:05:00,
2013-10-10 20:06:00,46.8,3.0,29.82,SE,135,0.0,0.0,16,0.00,,SKC,0.00,VWS V14.00,2013-10-11 03:06:00,
2013-10-10 20:07:00,46.8,3.0,29.82,SE,135,0.0,0.0,16,0.00,,SKC,0.00,VWS V14.00,2013-10-11 03:07:00,
2013-10-10 20:08:00,46.8,3.0,29.82,SE,135,0.0,0.0,16,0.00,,SKC,0.00,VWS V14.00,2013-10-11 03:08:00,
2013-10-10 20:10:00,46.6,2.8,29.82,SE,135,0.0,0.0,16,0.00,,SKC,0.00,VWS V14.00,2013-10-11 03:10:00,
2013-10-10 20:11:00,46.4,2.7,29.82,SE,135,0.0,0.0,16,0.00,,SKC,0.00,VWS V14.00,2013-10-11 03:11:00,
2013-10-10 20:12:00,46.4,2.7,29.82,SE,135,0.0,0.0,16,0.00,,SKC,0.00,VWS V14.00,2013-10-11 03:12:00,
2013-10-10 20:13:00,46.1,2.4,29.82,SE,135,0.0,0.0,16,0.00,,SKC,0.00,VWS V14.00,2013-10-11 03:13:00,
2013-10-10 20:15:00,45.7,2.1,29.82,SE,135,0.0,0.0,16,0.00,,SKC,0.00,VWS V14.00,2013-10-11 03:15:00,
2013-10-10 20:16:00,45.7,2.1,29.82,SE,135,0.0,0.0,16,0.00,,SKC,0.00,VWS V14.00,2013-10-11 03:16:00,
2013-10-10 20:17:00,45.5,2.0,29.82,SE,135,0.0,0.0,16,0.00,,SKC,0.00,VWS V14.00,2013-10-11 03:17:00,
2013-10-10 20:18:00,45.4,1.8,29.82,SE,135,0.0,0.0,16,0.00,,SKC,0.00,VWS V14.00,2013-10-11 03:18:00,
2013-10-10 20:21:00,45.2,1.7,29.82,SE,135,0.0,0.0,16,0.00,,SKC,0.00,VWS V14.00,2013-10-11 03:21:00,
2013-10-10 20:22:00,45.2,1.7,29.82,SE,135,2.0,2.0,16,0.00,,SKC,0.00,VWS V14.00,2013-10-11 03:22:00,
2013-10-10 20:24:00,45.4,1.8,29.82,SE,135,1.6,1.6,16,0.00,,SKC,0.00,VWS V14.00,2013-10-11 03:24:00,
2013-10-10 20:26:00,45.4,1.8,29.82,SE,135,0.0,0.0,16,0.00,,SKC,0.00,VWS V14.00,2013-10-11 03:26:00,
2013-10-10 20:27:00,45.2,1.7,29.82,SE,135,0.0,0.0,16,0.00,,SKC,0.00,VWS V14.00,2013-10-11 03:27:00,
2013-10-10 20:29:00,45.0,1.5,29.85,SE,135,0.0,0.0,16,0.00,,SKC,0.00,VWS V14.00,2013-10-11 03:29:00,
2013-10-10 20:31:00,44.5,1.1,29.85,North,0,0.0,0.0,16,0.00,,SKC,0.00,VWS V14.00,2013-10-11 03:31:00,
2013-10-10 20:32:00,44.3,0.9,29.85,North,0,0.0,0.0,16,0.00,,SKC,0.00,VWS V14.00,2013-10-11 03:32:00,
2013-10-10 20:34:00,44.1,0.8,29.85,North,0,0.0,0.0,16,0.00,,SKC,0.00,VWS V14.00,2013-10-11 03:34:00,
2013-10-10 20:36:00,44.1,0.8,29.85,NW,315,0.0,0.0,16,0.00,,SKC,0.00,VWS V14.00,2013-10-11 03:36:00,
2013-10-10 20:37:00,44.1,0.8,29.85,NW,315,0.0,0.0,16,0.00,,SKC,0.00,VWS V14.00,2013-10-11 03:37:00,
2013-10-10 20:40:00,43.9,0.6,29.85,WNW,292,1.6,1.6,16,0.00,,SKC,0.00,VWS V14.00,2013-10-11 03:40:00,
2013-10-10 20:41:00,43.9,0.6,29.85,WNW,292,1.6,1.6,16,0.00,,SKC,0.00,VWS V14.00,2013-10-11 03:41:00,
2013-10-10 20:42:00,43.9,0.6,29.85,WNW,292,2.0,2.0,16,0.00,,SKC,0.00,VWS V14.00,2013-10-11 03:42:00,
2013-10-10 20:43:00,43.7,0.5,29.85,WNW,292,1.3,1.3,16,0.00,,SKC,0.00,VWS V14.00,2013-10-11 03:43:00,
2013-10-10 20:45:00,43.4,0.2,29.85,West,270,2.7,2.7,16,0.00,,SKC,0.00,VWS V14.00,2013-10-11 03:45:00,
2013-10-10 20:46:00,43.2,0.1,29.85,West,270,2.7,2.7,16,0.00,,SKC,0.00,VWS V14.00,2013-10-11 03:46:00,
2013-10-10 20:47:00,43.2,0.1,29.85,West,270,2.5,2.5,16,0.00,,SKC,0.00,VWS V14.00,2013-10-11 03:47:00,
2013-10-10 20:48:00,43.0,1.2,29.85,West,270,2.2,2.2,17,0.00,,SKC,0.00,VWS V14.00,2013-10-11 03:48:00,
2013-10-10 20:49:00,43.0,1.2,29.85,WNW,292,2.2,2.2,17,0.00,,SKC,0.00,VWS V14.00,2013-10-11 03:49:00,
2013-10-10 20:50:00,42.8,1.0,29.85,WNW,292,2.2,2.2,17,0.00,,SKC,0.00,VWS V14.00,2013-10-11 03:50:00,
2013-10-10 20:51:00,42.8,1.0,29.85,WNW,292,2.5,2.5,17,0.00,,SKC,0.00,VWS V14.00,2013-10-11 03:51:00,
2013-10-10 20:52:00,42.7,0.9,29.85,WNW,292,2.9,2.9,17,0.00,,SKC,0.00,VWS V14.00,2013-10-11 03:52:00,
2013-10-10 20:54:00,42.7,0.9,29.85,WNW,292,2.9,2.9,17,0.00,,SKC,0.00,VWS V14.00,2013-10-11 03:54:00,
2013-10-10 20:55:00,42.7,0.9,29.85,West,270,2.7,2.7,17,0.00,,SKC,0.00,VWS V14.00,2013-10-11 03:55:00,
2013-10-10 20:56:00,42.5,0.8,29.85,WNW,292,2.5,2.5,17,0.00,,SKC,0.00,VWS V14.00,2013-10-11 03:56:00,
2013-10-10 20:57:00,42.5,0.8,29.85,WNW,292,2.7,2.7,17,0.00,,SKC,0.00,VWS V14.00,2013-10-11 03:57:00,
2013-10-10 20:59:00,42.5,0.8,29.88,WNW,292,2.0,2.0,17,0.00,,SKC,0.00,VWS V14.00,2013-10-11 03:59:00,
2013-10-10 21:00:00,42.3,0.6,29.88,WNW,292,1.6,1.6,17,0.00,,SKC,0.00,VWS V14.00,2013-10-11 04:00:00,
2013-10-10 21:01:00,42.3,0.6,29.88,WNW,292,0.0,0.0,17,0.00,,SKC,0.00,VWS V14.00,2013-10-11 04:01:00,
2013-10-10 21:02:00,42.1,0.5,29.88,WNW,292,0.0,0.0,17,0.00,,SKC,0.00,VWS V14.00,2013-10-11 04:02:00,
2013-10-10 21:06:00,41.9,0.3,29.88,WNW,292,0.0,0.0,17,0.00,,SKC,0.00,VWS V14.00,2013-10-11 04:06:00,
2013-10-10 21:07:00,41.9,0.3,29.88,WNW,292,0.0,0.0,17,0.00,,SKC,0.00,VWS V14.00,2013-10-11 04:07:00,
2013-10-10 21:11:00,41.9,0.3,29.88,WNW,292,1.6,1.6,17,0.00,,SKC,0.00,VWS V14.00,2013-10-11 04:11:00,
2013-10-10 21:12:00,41.9,0.3,29.88,WNW,292,1.6,1.6,17,0.00,,SKC,0.00,VWS V14.00,2013-10-11 04:12:00,
2013-10-10 21:16:00,41.9,0.3,29.88,WNW,292,0.0,0.0,17,0.00,,SKC,0.00,VWS V14.00,2013-10-11 04:16:00,
2013-10-10 21:17:00,41.9,0.3,29.88,WNW,292,0.0,0.0,17,0.00,,SKC,0.00,VWS V14.00,2013-10-11 04:17:00,
2013-10-10 21:18:00,42.1,0.5,29.88,WNW,292,0.0,0.0,17,0.00,,SKC,0.00,VWS V14.00,2013-10-11 04:18:00,
2013-10-10 21:21:00,42.1,0.5,29.88,West,270,2.2,2.2,17,0.00,,SKC,0.00,VWS V14.00,2013-10-11 04:21:00,
2013-10-10 21:22:00,42.3,0.6,29.88,WNW,292,4.3,4.3,17,0.00,,SKC,0.00,VWS V14.00,2013-10-11 04:22:00,
2013-10-10 21:23:00,42.3,3.0,29.88,WNW,292,3.6,3.6,19,0.00,,SKC,0.00,VWS V14.00,2013-10-11 04:23:00,
2013-10-10 21:26:00,42.1,0.5,29.88,WNW,292,2.9,2.9,17,0.00,,SKC,0.00,VWS V14.00,2013-10-11 04:26:00,
2013-10-10 21:27:00,41.9,0.3,29.88,WNW,292,2.9,2.9,17,0.00,,SKC,0.00,VWS V14.00,2013-10-11 04:27:00,
2013-10-10 21:28:00,41.9,0.3,29.88,WNW,292,3.1,3.1,17,0.00,,SKC,0.00,VWS V14.00,2013-10-11 04:28:00,
2013-10-10 21:29:00,41.8,0.2,29.88,WNW,292,3.1,3.1,17,0.00,,SKC,0.00,VWS V14.00,2013-10-11 04:29:00,
2013-10-10 21:31:00,41.4,-0.1,29.88,WNW,292,2.5,2.5,17,0.00,,SKC,0.00,VWS V14.00,2013-10-11 04:31:00,
2013-10-10 21:32:00,41.4,-0.1,29.88,WNW,292,2.7,2.7,17,0.00,,SKC,0.00,VWS V14.00,2013-10-11 04:32:00,
2013-10-10 21:33:00,41.4,-0.1,29.88,WNW,292,1.6,1.6,17,0.00,,SKC,0.00,VWS V14.00,2013-10-11 04:33:00,
2013-10-10 21:35:00,41.4,-0.1,29.88,WNW,292,3.6,3.6,17,0.00,,SKC,0.00,VWS V14.00,2013-10-11 04:35:00,
2013-10-10 21:36:00,41.4,-0.1,29.88,WNW,292,2.5,2.5,17,0.00,,SKC,0.00,VWS V14.00,2013-10-11 04:36:00,
2013-10-10 21:37:00,41.4,-0.1,29.88,WNW,292,3.4,3.4,17,0.00,,SKC,0.00,VWS V14.00,2013-10-11 04:37:00,
2013-10-10 21:38:00,41.4,-0.1,29.88,WNW,292,2.0,2.0,17,0.00,,SKC,0.00,VWS V14.00,2013-10-11 04:38:00,
2013-10-10 21:40:00,41.4,-0.1,29.88,WNW,292,1.6,1.6,17,0.00,,SKC,0.00,VWS V14.00,2013-10-11 04:40:00,
2013-10-10 21:41:00,41.2,-0.3,29.88,WNW,292,1.1,1.1,17,0.00,,SKC,0.00,VWS V14.00,2013-10-11 04:41:00,
2013-10-10 21:42:00,41.2,-0.3,29.88,WNW,292,0.0,0.0,17,0.00,,SKC,0.00,VWS V14.00,2013-10-11 04:42:00,
2013-10-10 21:43:00,41.2,-0.3,29.88,WNW,292,0.0,0.0,17,0.00,,SKC,0.00,VWS V14.00,2013-10-11 04:43:00,
2013-10-10 21:44:00,41.0,-0.4,29.88,WNW,292,0.9,0.9,17,0.00,,SKC,0.00,VWS V14.00,2013-10-11 04:44:00,
2013-10-10 21:45:00,41.0,-0.4,29.88,WNW,292,2.7,2.7,17,0.00,,SKC,0.00,VWS V14.00,2013-10-11 04:45:00,
2013-10-10 21:46:00,41.2,-0.3,29.88,WNW,292,2.0,2.0,17,0.00,,SKC,0.00,VWS V14.00,2013-10-11 04:46:00,
2013-10-10 21:48:00,41.2,-0.3,29.88,WNW,292,1.3,1.3,17,0.00,,SKC,0.00,VWS V14.00,2013-10-11 04:48:00,
2013-10-10 21:49:00,41.2,-0.3,29.88,WNW,292,1.1,1.1,17,0.00,,SKC,0.00,VWS V14.00,2013-10-11 04:49:00,
2013-10-10 21:50:00,41.0,-0.4,29.88,NNW,338,0.0,0.0,17,0.00,,SKC,0.00,VWS V14.00,2013-10-11 04:50:00,
2013-10-10 21:52:00,41.0,-0.4,29.88,NNW,338,0.0,0.0,17,0.00,,SKC,0.00,VWS V14.00,2013-10-11 04:52:00,
2013-10-10 21:53:00,41.0,-0.4,29.88,NNW,338,0.0,0.0,17,0.00,,SKC,0.00,VWS V14.00,2013-10-11 04:53:00,
2013-10-10 21:54:00,41.0,-0.4,29.88,NNW,338,0.0,0.0,17,0.00,,SKC,0.00,VWS V14.00,2013-10-11 04:54:00,
2013-10-10 21:56:00,41.4,2.2,29.88,North,0,1.3,1.3,19,0.00,,SKC,0.00,VWS V14.00,2013-10-11 04:56:00,
2013-10-10 21:57:00,41.4,2.2,29.88,North,0,0.0,0.0,19,0.00,,SKC,0.00,VWS V14.00,2013-10-11 04:57:00,
2013-10-10 21:58:00,41.6,2.4,29.88,North,0,0.0,0.0,19,0.00,,SKC,0.00,VWS V14.00,2013-10-11 04:58:00,
2013-10-10 21:59:00,41.8,2.5,29.88,North,0,0.0,0.0,19,0.00,,SKC,0.00,VWS V14.00,2013-10-11 04:59:00,
2013-10-10 22:01:00,41.8,2.5,29.88,North,0,0.0,0.0,19,0.00,,SKC,0.00,VWS V14.00,2013-10-11 05:01:00,
2013-10-10 22:02:00,41.8,2.5,29.88,North,0,0.0,0.0,19,0.00,,SKC,0.00,VWS V14.00,2013-10-11 05:02:00,
2013-10-10 22:03:00,41.8,2.5,29.88,North,0,0.0,0.0,19,0.00,,SKC,0.00,VWS V14.00,2013-10-11 05:03:00,
2013-10-10 22:04:00,41.8,2.5,29.88,North,0,0.0,0.0,19,0.00,,SKC,0.00,VWS V14.00,2013-10-11 05:04:00,
2013-10-10 22:06:00,41.8,2.5,29.88,WNW,292,0.0,0.0,19,0.00,,SKC,0.00,VWS V14.00,2013-10-11 05:06:00,
2013-10-10 22:07:00,41.8,2.5,29.88,WNW,292,0.0,0.0,19,0.00,,SKC,0.00,VWS V14.00,2013-10-11 05:07:00,
2013-10-10 22:08:00,41.4,2.2,29.88,West,270,0.0,0.0,19,0.00,,SKC,0.00,VWS V14.00,2013-10-11 05:08:00,
2013-10-10 22:09:00,41.2,3.2,29.88,West,270,0.0,0.0,20,0.00,,SKC,0.00,VWS V14.00,2013-10-11 05:09:00,
2013-10-10 22:10:00,40.9,2.9,29.88,West,270,0.0,0.0,20,0.00,,SKC,0.00,VWS V14.00,2013-10-11 05:10:00,
2013-10-10 22:12:00,40.9,2.9,29.88,West,270,1.1,1.1,20,0.00,,SKC,0.00,VWS V14.00,2013-10-11 05:12:00,
2013-10-10 22:13:00,40.7,2.8,29.88,West,270,0.0,0.0,20,0.00,,SKC,0.00,VWS V14.00,2013-10-11 05:13:00,
2013-10-10 22:14:00,40.7,2.8,29.88,West,270,0.0,0.0,20,0.00,,SKC,0.00,VWS V14.00,2013-10-11 05:14:00,
2013-10-10 22:15:00,40.7,2.8,29.88,West,270,0.0,0.0,20,0.00,,SKC,0.00,VWS V14.00,2013-10-11 05:15:00,
2013-10-10 22:17:00,40.3,2.5,29.88,West,270,0.0,0.0,20,0.00,,SKC,0.00,VWS V14.00,2013-10-11 05:17:00,
2013-10-10 22:18:00,40.1,2.3,29.88,WNW,292,2.7,2.7,20,0.00,,SKC,0.00,VWS V14.00,2013-10-11 05:18:00,
2013-10-10 22:19:00,40.1,2.3,29.88,WNW,292,2.2,2.2,20,0.00,,SKC,0.00,VWS V14.00,2013-10-11 05:19:00,
2013-10-10 22:20:00,40.1,2.3,29.88,West,270,2.5,2.5,20,0.00,,SKC,0.00,VWS V14.00,2013-10-11 05:20:00,
2013-10-10 22:21:00,40.1,2.3,29.88,West,270,2.2,2.2,20,0.00,,SKC,0.00,VWS V14.00,2013-10-11 05:21:00,
2013-10-10 22:22:00,40.0,2.2,29.88,West,270,0.0,0.0,20,0.00,,SKC,0.00,VWS V14.00,2013-10-11 05:22:00,
2013-10-10 22:24:00,39.8,-1.5,29.88,West,270,0.0,0.0,17,0.00,,SKC,0.00,VWS V14.00,2013-10-11 05:24:00,
2013-10-10 22:25:00,39.6,1.8,29.88,WNW,292,0.0,0.0,20,0.00,,SKC,0.00,VWS V14.00,2013-10-11 05:25:00,
2013-10-10 22:26:00,39.6,1.8,29.88,West,270,2.5,2.5,20,0.00,,SKC,0.00,VWS V14.00,2013-10-11 05:26:00,
2013-10-10 22:27:00,39.6,1.8,29.88,West,270,0.9,0.9,20,0.00,,SKC,0.00,VWS V14.00,2013-10-11 05:27:00,
2013-10-10 22:29:00,39.2,1.5,29.88,SW,225,0.0,0.0,20,0.00,,SKC,0.00,VWS V14.00,2013-10-11 05:29:00,
2013-10-10 22:30:00,39.2,1.5,29.88,SW,225,0.0,0.0,20,0.00,,SKC,0.00,VWS V14.00,2013-10-11 05:30:00,
2013-10-10 22:32:00,38.7,-1.1,29.88,SE,135,0.0,0.0,18,0.00,,SKC,0.00,VWS V14.00,2013-10-11 05:32:00,
2013-10-10 22:34:00,38.3,-1.5,29.88,SE,135,0.0,0.0,18,0.00,,SKC,0.00,VWS V14.00,2013-10-11 05:34:00,
2013-10-10 22:35:00,38.3,-1.5,29.88,SE,135,0.0,0.0,18,0.00,,SKC,0.00,VWS V14.00,2013-10-11 05:35:00,
2013-10-10 22:37:00,38.3,-1.5,29.88,SE,135,0.0,0.0,18,0.00,,SKC,0.00,VWS V14.00,2013-10-11 05:37:00,
2013-10-10 22:38:00,38.3,-1.5,29.88,SE,135,0.0,0.0,18,0.00,,SKC,0.00,VWS V14.00,2013-10-11 05:38:00,
2013-10-10 22:39:00,38.2,-1.6,29.88,SE,135,0.0,0.0,18,0.00,,SKC,0.00,VWS V14.00,2013-10-11 05:39:00,
2013-10-10 22:40:00,38.0,-1.7,29.88,SE,135,0.0,0.0,18,0.00,,SKC,0.00,VWS V14.00,2013-10-11 05:40:00,
2013-10-10 22:42:00,37.8,-1.9,29.88,SE,135,0.0,0.0,18,0.00,,SKC,0.00,VWS V14.00,2013-10-11 05:42:00,
2013-10-10 22:43:00,37.8,-1.9,29.88,SE,135,0.0,0.0,18,0.00,,SKC,0.00,VWS V14.00,2013-10-11 05:43:00,
2013-10-10 22:44:00,37.8,-1.9,29.88,SE,135,0.0,0.0,18,0.00,,SKC,0.00,VWS V14.00,2013-10-11 05:44:00,
2013-10-10 22:45:00,37.8,-1.9,29.88,SE,135,0.0,0.0,18,0.00,,SKC,0.00,VWS V14.00,2013-10-11 05:45:00,
2013-10-10 22:47:00,37.8,0.3,29.88,SE,135,0.0,0.0,20,0.00,,SKC,0.00,VWS V14.00,2013-10-11 05:47:00,
2013-10-10 22:49:00,38.0,0.5,29.88,SE,135,0.0,0.0,20,0.00,,SKC,0.00,VWS V14.00,2013-10-11 05:49:00,
2013-10-10 22:50:00,38.0,0.5,29.88,SE,135,1.1,1.1,20,0.00,,SKC,0.00,VWS V14.00,2013-10-11 05:50:00,
2013-10-10 22:52:00,38.2,0.6,29.88,NE,45,0.0,0.0,20,0.00,,SKC,0.00,VWS V14.00,2013-10-11 05:52:00,
2013-10-10 22:54:00,38.5,0.9,29.88,NE,45,0.0,0.0,20,0.00,,SKC,0.00,VWS V14.00,2013-10-11 05:54:00,
2013-10-10 22:55:00,38.3,0.8,29.88,ENE,68,2.0,2.0,20,0.00,,SKC,0.00,VWS V14.00,2013-10-11 05:55:00,
2013-10-10 22:57:00,38.0,0.5,29.88,East,90,2.5,2.5,20,0.00,,SKC,0.00,VWS V14.00,2013-10-11 05:57:00,
2013-10-10 22:58:00,38.2,0.6,29.88,East,90,2.0,2.0,20,0.00,,SKC,0.00,VWS V14.00,2013-10-11 05:58:00,
2013-10-10 22:59:00,38.9,4.2,29.88,ENE,68,2.9,2.9,23,0.00,,SKC,0.00,VWS V14.00,2013-10-11 05:59:00,
2013-10-10 23:00:00,39.2,6.4,29.88,NE,45,2.5,2.5,25,0.00,,SKC,0.00,VWS V14.00,2013-10-11 06:00:00,
2013-10-10 23:02:00,40.9,10.3,29.88,NNE,22,3.6,3.6,28,0.00,,SKC,0.00,VWS V14.00,2013-10-11 06:02:00,
2013-10-10 23:03:00,40.9,10.3,29.88,NNE,22,2.9,2.9,28,0.00,,SKC,0.00,VWS V14.00,2013-10-11 06:03:00,
2013-10-10 23:05:00,40.9,10.3,29.88,North,0,2.0,2.0,28,0.00,,SKC,0.00,VWS V14.00,2013-10-11 06:05:00,
2013-10-10 23:07:00,40.9,10.3,29.88,NE,45,3.4,3.4,28,0.00,,SKC,0.00,VWS V14.00,2013-10-11 06:07:00,
2013-10-10 23:08:00,41.0,10.4,29.88,NE,45,4.0,4.0,28,0.00,,SKC,0.00,VWS V14.00,2013-10-11 06:08:00,
2013-10-10 23:10:00,41.4,10.8,29.88,NE,45,3.8,3.8,28,0.00,,SKC,0.00,VWS V14.00,2013-10-11 06:10:00,
2013-10-10 23:11:00,41.4,10.8,29.88,NNE,22,3.4,3.4,28,0.00,,SKC,0.00,VWS V14.00,2013-10-11 06:11:00,
2013-10-10 23:12:00,41.6,10.9,29.88,North,0,3.4,3.4,28,0.00,,SKC,0.00,VWS V14.00,2013-10-11 06:12:00,
2013-10-10 23:14:00,41.9,11.2,29.88,North,0,2.5,2.5,28,0.00,,SKC,0.00,VWS V14.00,2013-10-11 06:14:00,
2013-10-10 23:15:00,41.9,11.2,29.88,North,0,2.7,2.7,28,0.00,,SKC,0.00,VWS V14.00,2013-10-11 06:15:00,
2013-10-10 23:16:00,41.9,11.2,29.88,North,0,2.2,2.2,28,0.00,,SKC,0.00,VWS V14.00,2013-10-11 06:16:00,
2013-10-10 23:17:00,42.1,11.4,29.88,NW,315,2.9,2.9,28,0.00,,SKC,0.00,VWS V14.00,2013-10-11 06:17:00,
2013-10-10 23:19:00,42.3,11.5,29.88,NW,315,2.5,2.5,28,0.00,,SKC,0.00,VWS V14.00,2013-10-11 06:19:00,
2013-10-10 23:20:00,42.5,11.7,29.88,WNW,292,2.5,2.5,28,0.00,,SKC,0.00,VWS V14.00,2013-10-11 06:20:00,
2013-10-10 23:21:00,42.7,11.9,29.88,WNW,292,2.7,2.7,28,0.00,,SKC,0.00,VWS V14.00,2013-10-11 06:21:00,
2013-10-10 23:22:00,42.7,11.9,29.88,WNW,292,0.9,0.9,28,0.00,,SKC,0.00,VWS V14.00,2013-10-11 06:22:00,
2013-10-10 23:24:00,42.5,11.7,29.88,WNW,292,0.0,0.0,28,0.00,,SKC,0.00,VWS V14.00,2013-10-11 06:24:00,
2013-10-10 23:25:00,42.5,11.7,29.88,WNW,292,0.0,0.0,28,0.00,,SKC,0.00,VWS V14.00,2013-10-11 06:25:00,
2013-10-10 23:26:00,42.3,11.5,29.88,WNW,292,0.0,0.0,28,0.00,,SKC,0.00,VWS V14.00,2013-10-11 06:26:00,
2013-10-10 23:27:00,42.3,11.5,29.88,WNW,292,0.0,0.0,28,0.00,,SKC,0.00,VWS V14.00,2013-10-11 06:27:00,
2013-10-10 23:29:00,42.3,11.5,29.88,NW,315,2.5,2.5,28,0.00,,SKC,0.00,VWS V14.00,2013-10-11 06:29:00,
2013-10-10 23:30:00,42.3,11.5,29.88,NW,315,2.7,2.7,28,0.00,,SKC,0.00,VWS V14.00,2013-10-11 06:30:00,
2013-10-10 23:31:00,42.3,11.5,29.88,NW,315,2.5,2.5,28,0.00,,SKC,0.00,VWS V14.00,2013-10-11 06:31:00,
2013-10-10 23:32:00,42.5,11.7,29.88,WNW,292,3.1,3.1,28,0.00,,SKC,0.00,VWS V14.00,2013-10-11 06:32:00,
2013-10-10 23:34:00,42.8,12.8,29.88,NW,315,0.0,0.0,29,0.00,,SKC,0.00,VWS V14.00,2013-10-11 06:34:00,
2013-10-10 23:35:00,42.8,12.8,29.88,NW,315,0.0,0.0,29,0.00,,SKC,0.00,VWS V14.00,2013-10-11 06:35:00,
2013-10-10 23:36:00,42.8,12.8,29.88,NW,315,0.0,0.0,29,0.00,,SKC,0.00,VWS V14.00,2013-10-11 06:36:00,
2013-10-10 23:37:00,42.8,12.8,29.88,NW,315,1.6,1.6,29,0.00,,SKC,0.00,VWS V14.00,2013-10-11 06:37:00,
2013-10-10 23:40:00,42.8,12.8,29.88,WNW,292,2.2,2.2,29,0.00,,SKC,0.00,VWS V14.00,2013-10-11 06:40:00,
2013-10-10 23:41:00,42.8,12.0,29.88,NW,315,1.6,1.6,28,0.00,,SKC,0.00,VWS V14.00,2013-10-11 06:41:00,
2013-10-10 23:43:00,42.7,11.9,29.88,NW,315,0.0,0.0,28,0.00,,SKC,0.00,VWS V14.00,2013-10-11 06:43:00,
2013-10-10 23:45:00,42.5,12.5,29.91,NW,315,0.0,0.0,29,0.00,,SKC,0.00,VWS V14.00,2013-10-11 06:45:00,
2013-10-10 23:46:00,42.3,11.5,29.91,NW,315,0.0,0.0,28,0.00,,SKC,0.00,VWS V14.00,2013-10-11 06:46:00,
2013-10-10 23:48:00,42.3,11.5,29.91,NW,315,0.0,0.0,28,0.00,,SKC,0.00,VWS V14.00,2013-10-11 06:48:00,
2013-10-10 23:50:00,42.3,12.3,29.91,NW,315,2.5,2.5,29,0.00,,SKC,0.00,VWS V14.00,2013-10-11 06:50:00,
2013-10-10 23:51:00,42.5,12.5,29.91,NNW,338,1.1,1.1,29,0.00,,SKC,0.00,VWS V14.00,2013-10-11 06:51:00,
2013-10-10 23:52:00,42.5,12.5,29.91,NNW,338,0.0,0.0,29,0.00,,SKC,0.00,VWS V14.00,2013-10-11 06:52:00,
2013-10-10 23:53:00,42.5,12.5,29.91,NNW,338,1.6,1.6,29,0.00,,SKC,0.00,VWS V14.00,2013-10-11 06:53:00,
2013-10-10 23:55:00,42.3,12.3,29.91,NW,315,2.2,2.2,29,0.00,,SKC,0.00,VWS V14.00,2013-10-11 06:55:00,
2013-10-10 23:56:00,42.3,12.3,29.91,WNW,292,0.0,0.0,29,0.00,,SKC,0.00,VWS V14.00,2013-10-11 06:56:00,
2013-10-10 23:57:00,42.3,12.3,29.91,WNW,292,0.0,0.0,29,0.00,,SKC,0.00,VWS V14.00,2013-10-11 06:57:00,
2013-10-10 23:58:00,42.3,12.3,29.88,WNW,292,1.3,1.3,29,0.00,,SKC,0.00,VWS V14.00,2013-10-11 06:58:00,